Time,TemperatureF,DewpointF,PressureIn,WindDirection,WindDirectionDegrees,WindSpeedMPH,WindSpeedGustMPH,Humidity,HourlyPrecipIn,Conditions,Clouds,dailyrainin,SoftwareType,DateUTC
2013-07-07 00:00:00,74.0,64.0,30.00,East,90,4.6,9.2,71,0.00,OVC,,0.00,WeatherDisplay:10.37,2013-07-07 05:00:00,
2013-07-07 00:03:00,74.0,64.0,30.01,SSE,157,2.4,6.9,71,0.00,OVC,,0.00,WeatherDisplay:10.37,2013-07-07 05:03:00,
2013-07-07 00:04:00,74.0,64.0,30.01,ESE,112,4.8,6.9,71,0.00,OVC,,0.00,WeatherDisplay:10.37,2013-07-07 05:04:00,
2013-07-07 00:05:00,74.0,64.0,30.01,NNW,337,1.3,11.5,71,0.00,OVC,,0.00,WeatherDisplay:10.37,2013-07-07 05:05:00,
2013-07-07 00:08:00,74.0,64.0,30.01,ESE,112,3.4,8.0,71,0.00,OVC,,0.00,WeatherDisplay:10.37,2013-07-07 05:08:00,
2013-07-07 00:09:00,74.0,64.0,30.01,ESE,112,4.3,6.9,71,0.00,OVC,,0.00,WeatherDisplay:10.37,2013-07-07 05:09:00,
2013-07-07 00:10:00,74.0,64.0,30.01,ESE,112,1.2,8.1,71,0.00,OVC,,0.00,WeatherDisplay:10.37,2013-07-07 05:10:00,
2013-07-07 00:13:00,74.0,64.0,30.01,West,270,3.8,8.1,71,0.00,OVC,,0.00,WeatherDisplay:10.37,2013-07-07 05:13:00,
2013-07-07 00:14:00,74.0,64.0,30.01,ESE,112,3.2,8.1,71,0.00,OVC,,0.00,WeatherDisplay:10.37,2013-07-07 05:14:00,
2013-07-07 00:15:00,74.0,64.0,30.01,ESE,112,2.2,4.6,71,0.00,OVC,,0.00,WeatherDisplay:10.37,2013-07-07 05:15:00,
2013-07-07 00:16:00,74.0,64.0,30.01,South,180,3.1,5.0,71,0.00,OVC,,0.00,WeatherDisplay:10.37,2013-07-07 05:16:00,
2013-07-07 00:19:00,74.0,64.0,30.01,NNW,337,2.7,4.6,71,0.00,OVC,,0.00,WeatherDisplay:10.37,2013-07-07 05:19:00,
2013-07-07 00:20:00,74.0,64.0,30.01,South,180,1.1,4.0,71,0.00,OVC,,0.00,WeatherDisplay:10.37,2013-07-07 05:20:00,
2013-07-07 00:21:00,74.0,63.6,30.01,NNE,22,2.6,6.9,70,0.00,OVC,,0.00,WeatherDisplay:10.37,2013-07-07 05:21:00,
2013-07-07 00:24:00,74.0,63.6,30.01,SW,225,3.3,6.9,70,0.00,OVC,,0.00,WeatherDisplay:10.37,2013-07-07 05:24:00,
2013-07-07 00:25:00,74.0,63.6,30.01,ESE,112,2.6,6.9,70,0.00,OVC,,0.00,WeatherDisplay:10.37,2013-07-07 05:25:00,
2013-07-07 00:26:00,74.0,63.6,30.01,SE,135,4.0,4.6,70,0.00,OVC,,0.00,WeatherDisplay:10.37,2013-07-07 05:26:00,
2013-07-07 00:29:00,73.0,62.6,30.01,South,180,2.7,4.6,70,0.00,OVC,,0.00,WeatherDisplay:10.37,2013-07-07 05:29:00,
2013-07-07 00:30:00,73.0,62.6,30.01,South,180,2.3,4.6,70,0.00,OVC,,0.00,WeatherDisplay:10.37,2013-07-07 05:30:00,
2013-07-07 00:31:00,73.0,62.6,30.00,SSW,202,3.2,9.2,70,0.00,OVC,,0.00,WeatherDisplay:10.37,2013-07-07 05:31:00,
2013-07-07 00:34:00,73.0,62.6,30.00,WSW,247,1.1,8.1,70,0.00,OVC,,0.00,WeatherDisplay:10.37,2013-07-07 05:34:00,
2013-07-07 00:35:00,73.0,62.6,30.00,WSW,247,0.2,8.1,70,0.00,OVC,,0.00,WeatherDisplay:10.37,2013-07-07 05:35:00,
2013-07-07 00:36:00,73.0,62.6,30.00,ESE,112,1.3,4.0,70,0.00,OVC,,0.00,WeatherDisplay:10.37,2013-07-07 05:36:00,
2013-07-07 00:37:00,73.0,62.6,30.00,SSE,157,2.9,3.5,70,0.00,OVC,,0.00,WeatherDisplay:10.37,2013-07-07 05:37:00,
2013-07-07 00:39:00,73.0,62.6,30.00,ESE,112,3.4,5.8,70,0.00,OVC,,0.00,WeatherDisplay:10.37,2013-07-07 05:39:00,
2013-07-07 00:40:00,73.0,62.6,30.00,SSE,157,4.3,6.9,70,0.00,OVC,,0.00,WeatherDisplay:10.37,2013-07-07 05:40:00,
2013-07-07 00:41:00,74.0,63.6,30.00,North,360,3.2,4.6,70,0.00,OVC,,0.00,WeatherDisplay:10.37,2013-07-07 05:41:00,
2013-07-07 00:42:00,73.0,62.6,30.00,North,360,0.2,3.5,70,0.00,OVC,,0.00,WeatherDisplay:10.37,2013-07-07 05:42:00,
2013-07-07 00:44:00,73.0,62.6,30.00,South,180,7.6,16.1,70,0.00,OVC,,0.00,WeatherDisplay:10.37,2013-07-07 05:44:00,
2013-07-07 00:45:00,74.0,63.2,30.00,SW,225,5.7,13.8,69,0.00,OVC,,0.00,WeatherDisplay:10.37,2013-07-07 05:45:00,
2013-07-07 00:46:00,74.0,63.2,30.00,SSE,157,3.5,9.2,69,0.00,OVC,,0.00,WeatherDisplay:10.37,2013-07-07 05:46:00,
2013-07-07 00:47:00,74.0,63.2,30.00,ESE,112,2.5,8.1,69,0.00,OVC,,0.00,WeatherDisplay:10.37,2013-07-07 05:47:00,
2013-07-07 00:49:00,74.0,63.2,30.00,SSE,157,3.4,5.8,69,0.00,OVC,,0.00,WeatherDisplay:10.37,2013-07-07 05:49:00,
2013-07-07 00:50:00,74.0,63.2,30.00,South,180,3.8,11.5,69,0.00,OVC,,0.00,WeatherDisplay:10.37,2013-07-07 05:50:00,
2013-07-07 00:51:00,74.0,62.8,30.00,South,180,0.8,6.9,68,0.00,OVC,,0.00,WeatherDisplay:10.37,2013-07-07 05:51:00,
2013-07-07 00:53:00,74.0,63.2,30.00,ENE,67,1.8,0.0,69,0.00,OVC,,0.00,WeatherDisplay:10.37,2013-07-07 05:53:00,
2013-07-07 00:54:00,74.0,63.2,30.00,SSW,202,3.9,7.0,69,0.00,OVC,,0.00,WeatherDisplay:10.37,2013-07-07 05:54:00,
2013-07-07 00:55:00,74.0,63.2,30.00,WSW,247,3.6,11.5,69,0.00,OVC,,0.00,WeatherDisplay:10.37,2013-07-07 05:55:00,
2013-07-07 00:56:00,74.0,63.2,30.00,SSW,202,1.7,5.8,69,0.00,OVC,,0.00,WeatherDisplay:10.37,2013-07-07 05:56:00,
2013-07-07 00:58:00,74.0,63.2,30.00,WSW,247,2.0,5.8,69,0.00,OVC,,0.00,WeatherDisplay:10.37,2013-07-07 05:58:00,
2013-07-07 00:59:00,74.0,63.2,30.00,South,180,3.8,10.4,69,0.00,OVC,,0.00,WeatherDisplay:10.37,2013-07-07 05:59:00,
2013-07-07 01:01:00,74.0,62.8,30.00,East,90,5.7,11.5,68,0.00,OVC,,0.00,WeatherDisplay:10.37,2013-07-07 06:01:00,
2013-07-07 01:02:00,74.0,62.8,30.00,East,90,4.4,11.5,68,0.00,OVC,,0.00,WeatherDisplay:10.37,2013-07-07 06:02:00,
2013-07-07 01:03:00,74.0,62.3,30.00,SSE,157,4.1,6.0,67,0.00,OVC,,0.00,WeatherDisplay:10.37,2013-07-07 06:03:00,
2013-07-07 01:05:00,74.0,62.8,30.00,SW,225,0.7,6.9,68,0.00,OVC,,0.00,WeatherDisplay:10.37,2013-07-07 06:05:00,
2013-07-07 01:07:00,74.0,62.3,30.00,South,180,3.4,4.6,67,0.00,OVC,,0.00,WeatherDisplay:10.37,2013-07-07 06:07:00,
2013-07-07 01:08:00,74.0,62.3,30.00,WNW,292,1.6,8.1,67,0.00,OVC,,0.00,WeatherDisplay:10.37,2013-07-07 06:08:00,
2013-07-07 01:10:00,74.0,62.3,30.00,South,180,3.1,10.4,67,0.00,OVC,,0.00,WeatherDisplay:10.37,2013-07-07 06:10:00,
2013-07-07 01:12:00,74.0,61.9,30.00,SSW,202,2.8,5.8,66,0.00,OVC,,0.00,WeatherDisplay:10.37,2013-07-07 06:12:00,
2013-07-07 01:13:00,74.0,62.3,30.00,SSW,202,1.5,5.8,67,0.00,OVC,,0.00,WeatherDisplay:10.37,2013-07-07 06:13:00,
2013-07-07 01:14:00,74.0,61.9,30.00,WNW,292,2.6,9.0,66,0.00,OVC,,0.00,WeatherDisplay:10.37,2013-07-07 06:14:00,
2013-07-07 01:15:00,74.0,61.9,30.00,SE,135,3.5,9.2,66,0.00,OVC,,0.00,WeatherDisplay:10.37,2013-07-07 06:15:00,
2013-07-07 01:17:00,74.0,61.9,30.00,SE,135,3.9,6.9,66,0.00,OVC,,0.00,WeatherDisplay:10.37,2013-07-07 06:17:00,
2013-07-07 01:18:00,74.0,61.9,30.00,SSW,202,4.5,8.1,66,0.00,OVC,,0.00,WeatherDisplay:10.37,2013-07-07 06:18:00,
2013-07-07 01:19:00,74.0,61.9,30.00,NE,45,2.9,8.0,66,0.00,OVC,,0.00,WeatherDisplay:10.37,2013-07-07 06:19:00,
2013-07-07 01:21:00,74.0,61.9,30.00,ESE,112,4.1,6.9,66,0.00,OVC,,0.00,WeatherDisplay:10.37,2013-07-07 06:21:00,
2013-07-07 01:22:00,74.0,61.9,30.00,SE,135,4.7,5.8,66,0.00,OVC,,0.00,WeatherDisplay:10.37,2013-07-07 06:22:00,
2013-07-07 01:23:00,74.0,61.9,30.00,WSW,247,4.4,5.8,66,0.00,OVC,,0.00,WeatherDisplay:10.37,2013-07-07 06:23:00,
2013-07-07 01:24:00,74.0,61.9,30.00,South,180,2.4,8.1,66,0.00,OVC,,0.00,WeatherDisplay:10.37,2013-07-07 06:24:00,
2013-07-07 01:26:00,74.0,61.9,30.00,ENE,67,1.4,3.5,66,0.00,OVC,,0.00,WeatherDisplay:10.37,2013-07-07 06:26:00,
2013-07-07 01:28:00,74.0,61.9,30.00,North,360,1.9,5.8,66,0.00,OVC,,0.00,WeatherDisplay:10.37,2013-07-07 06:28:00,
2013-07-07 01:29:00,74.0,61.5,30.00,North,360,1.8,6.9,65,0.00,OVC,,0.00,WeatherDisplay:10.37,2013-07-07 06:29:00,
2013-07-07 01:31:00,74.0,61.5,29.99,East,90,3.1,9.2,65,0.00,OVC,,0.00,WeatherDisplay:10.37,2013-07-07 06:31:00,
2013-07-07 01:34:00,74.0,61.5,29.99,ESE,112,2.7,4.6,65,0.00,OVC,,0.00,WeatherDisplay:10.37,2013-07-07 06:34:00,
2013-07-07 01:36:00,74.0,61.5,29.99,ENE,67,2.6,4.6,65,0.00,OVC,,0.00,WeatherDisplay:10.37,2013-07-07 06:36:00,
2013-07-07 01:38:00,74.0,61.5,29.99,SSE,157,6.3,10.4,65,0.00,OVC,,0.00,WeatherDisplay:10.37,2013-07-07 06:38:00,
2013-07-07 01:39:00,74.0,61.5,29.99,WNW,292,1.7,6.0,65,0.00,OVC,,0.00,WeatherDisplay:10.37,2013-07-07 06:39:00,
2013-07-07 01:40:00,74.0,61.5,29.99,ESE,112,3.6,8.0,65,0.00,OVC,,0.00,WeatherDisplay:10.37,2013-07-07 06:40:00,
2013-07-07 01:41:00,74.0,61.0,29.98,East,90,3.5,10.0,64,0.00,OVC,,0.00,WeatherDisplay:10.37,2013-07-07 06:41:00,
2013-07-07 01:44:00,74.0,61.5,29.98,SSE,157,2.5,6.9,65,0.00,OVC,,0.00,WeatherDisplay:10.37,2013-07-07 06:44:00,
2013-07-07 01:45:00,74.0,61.0,29.98,South,180,2.7,4.6,64,0.00,OVC,,0.00,WeatherDisplay:10.37,2013-07-07 06:45:00,
2013-07-07 01:46:00,74.0,61.0,29.98,SE,135,5.7,8.0,64,0.00,OVC,,0.00,WeatherDisplay:10.37,2013-07-07 06:46:00,
2013-07-07 01:49:00,74.0,61.0,29.98,South,180,2.3,5.8,64,0.00,OVC,,0.00,WeatherDisplay:10.37,2013-07-07 06:49:00,
2013-07-07 01:51:00,75.0,61.5,29.99,NE,45,2.8,5.8,63,0.00,OVC,,0.00,WeatherDisplay:10.37,2013-07-07 06:51:00,
2013-07-07 01:52:00,74.0,61.5,29.99,SE,135,3.1,6.9,65,0.00,OVC,,0.00,WeatherDisplay:10.37,2013-07-07 06:52:00,
2013-07-07 01:54:00,74.0,61.0,29.99,SSE,157,3.0,7.0,64,0.00,OVC,,0.00,WeatherDisplay:10.37,2013-07-07 06:54:00,
2013-07-07 01:56:00,74.0,61.5,29.99,East,90,4.2,8.1,65,0.00,OVC,,0.00,WeatherDisplay:10.37,2013-07-07 06:56:00,
2013-07-07 01:57:00,74.0,61.5,29.99,SSE,157,4.3,6.9,65,0.00,OVC,,0.00,WeatherDisplay:10.37,2013-07-07 06:57:00,
2013-07-07 01:59:00,74.0,61.5,29.99,ESE,112,3.5,5.8,65,0.00,OVC,,0.00,WeatherDisplay:10.37,2013-07-07 06:59:00,
2013-07-07 02:01:00,75.0,62.0,29.98,SSE,157,4.1,10.4,64,0.00,OVC,,0.00,WeatherDisplay:10.37,2013-07-07 07:01:00,
2013-07-07 02:02:00,74.0,61.5,29.98,SSE,157,1.7,6.9,65,0.00,OVC,,0.00,WeatherDisplay:10.37,2013-07-07 07:02:00,
2013-07-07 02:04:00,74.0,61.5,29.98,NE,45,3.7,6.9,65,0.00,OVC,,0.00,WeatherDisplay:10.37,2013-07-07 07:04:00,
2013-07-07 02:06:00,74.0,61.5,29.98,ESE,112,7.0,10.0,65,0.00,OVC,,0.00,WeatherDisplay:10.37,2013-07-07 07:06:00,
2013-07-07 02:07:00,74.0,61.5,29.98,NE,45,7.2,11.5,65,0.00,OVC,,0.00,WeatherDisplay:10.37,2013-07-07 07:07:00,
2013-07-07 02:08:00,74.0,61.5,29.98,WSW,247,4.4,9.2,65,0.00,OVC,,0.00,WeatherDisplay:10.37,2013-07-07 07:08:00,
2013-07-07 02:09:00,74.0,61.5,29.98,ESE,112,5.1,9.2,65,0.00,OVC,,0.00,WeatherDisplay:10.37,2013-07-07 07:09:00,
2013-07-07 02:12:00,74.0,61.5,29.98,SSW,202,3.5,8.1,65,0.00,OVC,,0.00,WeatherDisplay:10.37,2013-07-07 07:12:00,
2013-07-07 02:13:00,74.0,61.5,29.98,South,180,1.3,6.9,65,0.00,OVC,,0.00,WeatherDisplay:10.37,2013-07-07 07:13:00,
2013-07-07 02:14:00,74.0,61.5,29.98,SSW,202,5.6,8.1,65,0.00,OVC,,0.00,WeatherDisplay:10.37,2013-07-07 07:14:00,
2013-07-07 02:17:00,74.0,61.5,29.98,NNW,337,3.4,6.9,65,0.00,OVC,,0.00,WeatherDisplay:10.37,2013-07-07 07:17:00,
2013-07-07 02:18:00,74.0,61.5,29.98,NNE,22,4.6,8.1,65,0.00,OVC,,0.00,WeatherDisplay:10.37,2013-07-07 07:18:00,
2013-07-07 02:20:00,74.0,61.5,29.98,ESE,112,4.6,8.1,65,0.00,OVC,,0.00,WeatherDisplay:10.37,2013-07-07 07:20:00,
2013-07-07 02:22:00,74.0,61.5,29.98,WSW,247,4.5,7.0,65,0.00,OVC,,0.00,WeatherDisplay:10.37,2013-07-07 07:22:00,
2013-07-07 02:23:00,74.0,61.5,29.98,ESE,112,5.3,8.1,65,0.00,OVC,,0.00,WeatherDisplay:10.37,2013-07-07 07:23:00,
2013-07-07 02:24:00,74.0,61.5,29.98,ENE,67,2.6,6.9,65,0.00,OVC,,0.00,WeatherDisplay:10.37,2013-07-07 07:24:00,
2013-07-07 02:25:00,74.0,61.5,29.98,ESE,112,4.7,6.9,65,0.00,OVC,,0.00,WeatherDisplay:10.37,2013-07-07 07:25:00,
2013-07-07 02:27:00,74.0,61.5,29.98,WNW,292,3.5,13.8,65,0.00,OVC,,0.00,WeatherDisplay:10.37,2013-07-07 07:27:00,
2013-07-07 02:28:00,74.0,61.5,29.98,ENE,67,3.4,6.9,65,0.00,OVC,,0.00,WeatherDisplay:10.37,2013-07-07 07:28:00,
2013-07-07 02:29:00,74.0,61.5,29.98,SSW,202,3.9,8.1,65,0.00,OVC,,0.00,WeatherDisplay:10.37,2013-07-07 07:29:00,
2013-07-07 02:30:00,74.0,61.5,29.98,South,180,4.0,8.1,65,0.00,OVC,,0.00,WeatherDisplay:10.37,2013-07-07 07:30:00,
2013-07-07 02:32:00,74.0,61.0,29.98,WNW,292,2.3,6.9,64,0.00,OVC,,0.00,WeatherDisplay:10.37,2013-07-07 07:32:00,
2013-07-07 02:33:00,74.0,61.5,29.98,SE,135,3.2,6.9,65,0.00,OVC,,0.00,WeatherDisplay:10.37,2013-07-07 07:33:00,
2013-07-07 02:34:00,74.0,61.0,29.98,ENE,67,5.1,8.0,64,0.00,OVC,,0.00,WeatherDisplay:10.37,2013-07-07 07:34:00,
2013-07-07 02:35:00,74.0,61.5,29.98,SW,225,3.9,13.8,65,0.00,OVC,,0.00,WeatherDisplay:10.37,2013-07-07 07:35:00,
2013-07-07 02:38:00,74.0,61.0,29.98,SW,225,2.3,11.5,64,0.00,OVC,,0.00,WeatherDisplay:10.37,2013-07-07 07:38:00,
2013-07-07 02:39:00,74.0,61.0,29.98,East,90,4.4,10.4,64,0.00,OVC,,0.00,WeatherDisplay:10.37,2013-07-07 07:39:00,
2013-07-07 02:40:00,74.0,61.0,29.98,North,360,2.1,8.1,64,0.00,OVC,,0.00,WeatherDisplay:10.37,2013-07-07 07:40:00,
2013-07-07 02:43:00,74.0,61.0,29.97,ENE,67,3.0,9.2,64,0.00,OVC,,0.00,WeatherDisplay:10.37,2013-07-07 07:43:00,
2013-07-07 02:44:00,74.0,60.6,29.97,East,90,5.8,18.4,63,0.00,OVC,,0.00,WeatherDisplay:10.37,2013-07-07 07:44:00,
2013-07-07 02:46:00,74.0,60.6,29.97,SW,225,2.7,9.2,63,0.00,OVC,,0.00,WeatherDisplay:10.37,2013-07-07 07:46:00,
2013-07-07 02:48:00,74.0,61.0,29.97,NNW,337,1.4,4.6,64,0.00,OVC,,0.00,WeatherDisplay:10.37,2013-07-07 07:48:00,
2013-07-07 02:49:00,74.0,60.6,29.97,ESE,112,5.1,11.5,63,0.00,OVC,,0.00,WeatherDisplay:10.37,2013-07-07 07:49:00,
2013-07-07 02:50:00,74.0,60.6,29.97,NNW,337,4.4,11.5,63,0.00,OVC,,0.00,WeatherDisplay:10.37,2013-07-07 07:50:00,
2013-07-07 02:51:00,74.0,60.6,29.98,SW,225,5.2,10.4,63,0.00,OVC,,0.00,WeatherDisplay:10.37,2013-07-07 07:51:00,
2013-07-07 02:53:00,74.0,60.6,29.98,NNE,22,4.4,7.0,63,0.00,OVC,,0.00,WeatherDisplay:10.37,2013-07-07 07:53:00,
2013-07-07 02:54:00,74.0,60.6,29.98,SSE,157,4.7,13.8,63,0.00,OVC,,0.00,WeatherDisplay:10.37,2013-07-07 07:54:00,
2013-07-07 02:56:00,74.0,60.6,29.98,SW,225,4.6,8.1,63,0.00,OVC,,0.00,WeatherDisplay:10.37,2013-07-07 07:56:00,
2013-07-07 02:58:00,74.0,60.6,29.98,SE,135,2.2,8.1,63,0.00,OVC,,0.00,WeatherDisplay:10.37,2013-07-07 07:58:00,
2013-07-07 02:59:00,74.0,60.6,29.98,NW,315,2.5,4.0,63,0.00,OVC,,0.00,WeatherDisplay:10.37,2013-07-07 07:59:00,
2013-07-07 03:00:00,74.0,60.6,29.98,South,180,3.5,8.1,63,0.00,OVC,,0.00,WeatherDisplay:10.37,2013-07-07 08:00:00,
2013-07-07 03:01:00,74.0,60.6,29.98,NE,45,4.4,10.4,63,0.00,OVC,,0.00,WeatherDisplay:10.37,2013-07-07 08:01:00,
2013-07-07 03:04:00,74.0,60.6,29.98,NW,315,2.5,8.1,63,0.00,OVC,,0.00,WeatherDisplay:10.37,2013-07-07 08:04:00,
2013-07-07 03:05:00,74.0,60.6,29.98,SSW,202,5.6,8.1,63,0.00,OVC,,0.00,WeatherDisplay:10.37,2013-07-07 08:05:00,
2013-07-07 03:06:00,74.0,60.6,29.98,NNE,22,5.5,10.4,63,0.00,OVC,,0.00,WeatherDisplay:10.37,2013-07-07 08:06:00,
2013-07-07 03:07:00,74.0,60.6,29.98,SSE,157,3.4,5.8,63,0.00,OVC,,0.00,WeatherDisplay:10.37,2013-07-07 08:07:00,
2013-07-07 03:09:00,74.0,60.6,29.98,SSW,202,4.5,10.4,63,0.00,OVC,,0.00,WeatherDisplay:10.37,2013-07-07 08:09:00,
2013-07-07 03:10:00,74.0,60.6,29.98,South,180,7.2,10.4,63,0.00,OVC,,0.00,WeatherDisplay:10.37,2013-07-07 08:10:00,
2013-07-07 03:11:00,74.0,60.6,29.98,South,180,6.3,13.0,63,0.00,OVC,,0.00,WeatherDisplay:10.37,2013-07-07 08:11:00,
2013-07-07 03:12:00,74.0,60.6,29.98,South,180,6.2,13.8,63,0.00,OVC,,0.00,WeatherDisplay:10.37,2013-07-07 08:12:00,
2013-07-07 03:14:00,74.0,60.6,29.98,NE,45,4.5,10.4,63,0.00,OVC,,0.00,WeatherDisplay:10.37,2013-07-07 08:14:00,
2013-07-07 03:15:00,74.0,60.6,29.98,SSE,157,4.5,9.2,63,0.00,OVC,,0.00,WeatherDisplay:10.37,2013-07-07 08:15:00,
2013-07-07 03:16:00,74.0,60.6,29.98,ESE,112,7.1,11.5,63,0.00,OVC,,0.00,WeatherDisplay:10.37,2013-07-07 08:16:00,
2013-07-07 03:18:00,74.0,60.6,29.98,SSW,202,4.7,6.9,63,0.00,OVC,,0.00,WeatherDisplay:10.37,2013-07-07 08:18:00,
2013-07-07 03:20:00,74.0,60.6,29.98,South,180,2.7,5.8,63,0.00,OVC,,0.00,WeatherDisplay:10.37,2013-07-07 08:20:00,
2013-07-07 03:21:00,74.0,60.6,29.98,South,180,4.9,8.0,63,0.00,OVC,,0.00,WeatherDisplay:10.37,2013-07-07 08:21:00,
2013-07-07 03:23:00,74.0,61.0,29.98,SSE,157,3.4,10.0,64,0.00,OVC,,0.00,WeatherDisplay:10.37,2013-07-07 08:23:00,
2013-07-07 03:25:00,74.0,61.0,29.98,ESE,112,6.0,9.0,64,0.00,OVC,,0.00,WeatherDisplay:10.37,2013-07-07 08:25:00,
2013-07-07 03:26:00,74.0,61.0,29.98,North,360,4.8,11.5,64,0.00,OVC,,0.00,WeatherDisplay:10.37,2013-07-07 08:26:00,
2013-07-07 03:29:00,74.0,61.0,29.98,East,90,4.1,9.2,64,0.00,OVC,,0.00,WeatherDisplay:10.37,2013-07-07 08:29:00,
2013-07-07 03:30:00,74.0,61.0,29.98,ESE,112,3.9,9.2,64,0.00,OVC,,0.00,WeatherDisplay:10.37,2013-07-07 08:30:00,
2013-07-07 03:31:00,74.0,61.0,29.98,SSW,202,4.2,9.2,64,0.00,OVC,,0.00,WeatherDisplay:10.37,2013-07-07 08:31:00,
2013-07-07 03:34:00,74.0,61.0,29.98,ESE,112,5.9,11.5,64,0.00,OVC,,0.00,WeatherDisplay:10.37,2013-07-07 08:34:00,
2013-07-07 03:35:00,74.0,61.0,29.98,SSW,202,6.4,9.2,64,0.00,OVC,,0.00,WeatherDisplay:10.37,2013-07-07 08:35:00,
2013-07-07 03:36:00,74.0,61.5,29.98,SE,135,7.5,18.4,65,0.00,OVC,,0.00,WeatherDisplay:10.37,2013-07-07 08:36:00,
2013-07-07 03:37:00,74.0,61.5,29.98,South,180,3.3,7.0,65,0.00,OVC,,0.00,WeatherDisplay:10.37,2013-07-07 08:37:00,
2013-07-07 03:39:00,73.0,60.5,29.98,SSW,202,2.6,6.9,65,0.00,OVC,,0.00,WeatherDisplay:10.37,2013-07-07 08:39:00,
2013-07-07 03:40:00,73.0,60.5,29.98,WNW,292,3.3,9.2,65,0.00,OVC,,0.00,WeatherDisplay:10.37,2013-07-07 08:40:00,
2013-07-07 03:41:00,74.0,61.0,29.98,West,270,5.2,11.5,64,0.00,OVC,,0.00,WeatherDisplay:10.37,2013-07-07 08:41:00,
2013-07-07 03:42:00,73.0,60.5,29.98,WSW,247,4.8,10.4,65,0.00,OVC,,0.00,WeatherDisplay:10.37,2013-07-07 08:42:00,
2013-07-07 03:44:00,73.0,60.5,29.98,SW,225,2.9,6.9,65,0.00,OVC,,0.00,WeatherDisplay:10.37,2013-07-07 08:44:00,
2013-07-07 03:46:00,73.0,60.5,29.98,North,360,3.5,8.1,65,0.00,OVC,,0.00,WeatherDisplay:10.37,2013-07-07 08:46:00,
2013-07-07 03:47:00,73.0,60.5,29.98,ESE,112,3.9,10.4,65,0.00,OVC,,0.00,WeatherDisplay:10.37,2013-07-07 08:47:00,
2013-07-07 03:49:00,73.0,60.5,29.98,SSE,157,2.6,5.8,65,0.00,OVC,,0.00,WeatherDisplay:10.37,2013-07-07 08:49:00,
2013-07-07 03:51:00,73.0,60.5,29.98,NNE,22,4.9,12.7,65,0.00,OVC,,0.00,WeatherDisplay:10.37,2013-07-07 08:51:00,
2013-07-07 03:52:00,73.0,60.5,29.98,NNE,22,4.3,6.9,65,0.00,OVC,,0.00,WeatherDisplay:10.37,2013-07-07 08:52:00,
2013-07-07 03:54:00,73.0,60.5,29.98,SSE,157,5.2,5.2,65,0.00,OVC,,0.00,WeatherDisplay:10.37,2013-07-07 08:54:00,
2013-07-07 03:56:00,73.0,60.5,29.98,South,180,4.0,6.9,65,0.00,OVC,,0.00,WeatherDisplay:10.37,2013-07-07 08:56:00,
2013-07-07 03:57:00,73.0,60.5,29.98,ESE,112,4.7,5.8,65,0.00,OVC,,0.00,WeatherDisplay:10.37,2013-07-07 08:57:00,
2013-07-07 03:58:00,73.0,60.5,29.98,SSE,157,5.8,10.0,65,0.00,OVC,,0.00,WeatherDisplay:10.37,2013-07-07 08:58:00,
2013-07-07 04:00:00,73.0,60.5,29.98,SSE,157,3.4,6.9,65,0.00,OVC,,0.00,WeatherDisplay:10.37,2013-07-07 09:00:00,
2013-07-07 04:01:00,73.0,60.5,29.98,NNE,22,1.5,8.1,65,0.00,OVC,,0.00,WeatherDisplay:10.37,2013-07-07 09:01:00,
2013-07-07 04:02:00,73.0,60.5,29.98,East,90,3.7,8.1,65,0.00,OVC,,0.00,WeatherDisplay:10.37,2013-07-07 09:02:00,
2013-07-07 04:03:00,73.0,61.0,29.98,South,180,5.6,7.0,66,0.00,OVC,,0.00,WeatherDisplay:10.37,2013-07-07 09:03:00,
2013-07-07 04:05:00,73.0,61.0,29.98,West,270,0.9,10.4,66,0.00,OVC,,0.00,WeatherDisplay:10.37,2013-07-07 09:05:00,
2013-07-07 04:07:00,73.0,61.0,29.98,NNE,22,4.3,5.0,66,0.00,OVC,,0.00,WeatherDisplay:10.37,2013-07-07 09:07:00,
2013-07-07 04:08:00,73.0,61.0,29.98,South,180,3.3,5.8,66,0.00,OVC,,0.00,WeatherDisplay:10.37,2013-07-07 09:08:00,
2013-07-07 04:09:00,73.0,61.0,29.98,NE,45,2.2,4.6,66,0.00,OVC,,0.00,WeatherDisplay:10.37,2013-07-07 09:09:00,
2013-07-07 04:10:00,73.0,61.0,29.98,NNE,22,2.3,7.0,66,0.00,OVC,,0.00,WeatherDisplay:10.37,2013-07-07 09:10:00,
2013-07-07 04:12:00,73.0,61.0,29.98,East,90,3.1,8.1,66,0.00,OVC,,0.00,WeatherDisplay:10.37,2013-07-07 09:12:00,
2013-07-07 04:13:00,73.0,61.0,29.98,NW,315,3.7,8.1,66,0.00,OVC,,0.00,WeatherDisplay:10.37,2013-07-07 09:13:00,
2013-07-07 04:14:00,73.0,61.0,29.98,East,90,2.5,5.8,66,0.00,OVC,,0.00,WeatherDisplay:10.37,2013-07-07 09:14:00,
2013-07-07 04:15:00,73.0,61.0,29.98,WSW,247,4.9,8.1,66,0.00,OVC,,0.00,WeatherDisplay:10.37,2013-07-07 09:15:00,
2013-07-07 04:17:00,73.0,61.0,29.98,NE,45,4.4,9.2,66,0.00,OVC,,0.00,WeatherDisplay:10.37,2013-07-07 09:17:00,
2013-07-07 04:18:00,73.0,61.0,29.98,ENE,67,4.8,8.1,66,0.00,OVC,,0.00,WeatherDisplay:10.37,2013-07-07 09:18:00,
2013-07-07 04:19:00,73.0,61.0,29.98,SE,135,4.4,8.1,66,0.00,OVC,,0.00,WeatherDisplay:10.37,2013-07-07 09:19:00,
2013-07-07 04:20:00,73.0,61.0,29.98,NNW,337,2.6,4.6,66,0.00,OVC,,0.00,WeatherDisplay:10.37,2013-07-07 09:20:00,
2013-07-07 04:23:00,72.0,60.0,29.98,WSW,247,3.9,6.9,66,0.00,OVC,,0.00,WeatherDisplay:10.37,2013-07-07 09:23:00,
2013-07-07 04:24:00,72.0,60.0,29.98,WSW,247,1.9,9.2,66,0.00,OVC,,0.00,WeatherDisplay:10.37,2013-07-07 09:24:00,
2013-07-07 04:25:00,73.0,61.0,29.98,ESE,112,6.8,11.5,66,0.00,OVC,,0.00,WeatherDisplay:10.37,2013-07-07 09:25:00,
2013-07-07 04:28:00,73.0,61.0,29.98,SSE,157,4.8,6.9,66,0.00,OVC,,0.00,WeatherDisplay:10.37,2013-07-07 09:28:00,
2013-07-07 04:29:00,73.0,61.0,29.98,ENE,67,3.8,6.9,66,0.00,OVC,,0.00,WeatherDisplay:10.37,2013-07-07 09:29:00,
2013-07-07 04:31:00,73.0,61.0,29.98,SE,135,7.9,18.4,66,0.00,OVC,,0.00,WeatherDisplay:10.37,2013-07-07 09:31:00,
2013-07-07 04:33:00,73.0,61.0,29.98,NNW,337,4.0,9.2,66,0.00,OVC,,0.00,WeatherDisplay:10.37,2013-07-07 09:33:00,
2013-07-07 04:34:00,73.0,61.0,29.98,SE,135,3.6,8.1,66,0.00,OVC,,0.00,WeatherDisplay:10.37,2013-07-07 09:34:00,
2013-07-07 04:35:00,73.0,61.0,29.98,ESE,112,6.5,10.4,66,0.00,OVC,,0.00,WeatherDisplay:10.37,2013-07-07 09:35:00,
2013-07-07 04:36:00,73.0,61.0,29.98,SSE,157,3.7,8.0,66,0.00,OVC,,0.00,WeatherDisplay:10.37,2013-07-07 09:36:00,
2013-07-07 04:38:00,73.0,61.0,29.98,ESE,112,5.1,10.4,66,0.00,OVC,,0.00,WeatherDisplay:10.37,2013-07-07 09:38:00,
2013-07-07 04:39:00,73.0,61.0,29.98,ENE,67,3.4,10.4,66,0.00,OVC,,0.00,WeatherDisplay:10.37,2013-07-07 09:39:00,
2013-07-07 04:40:00,73.0,61.0,29.98,SSW,202,4.3,8.1,66,0.00,OVC,,0.00,WeatherDisplay:10.37,2013-07-07 09:40:00,
2013-07-07 04:41:00,73.0,60.5,29.98,SW,225,5.6,9.0,65,0.00,OVC,,0.00,WeatherDisplay:10.37,2013-07-07 09:41:00,
2013-07-07 04:44:00,73.0,60.5,29.98,East,90,3.4,5.8,65,0.00,OVC,,0.00,WeatherDisplay:10.37,2013-07-07 09:44:00,
2013-07-07 04:45:00,73.0,60.5,29.98,ESE,112,3.2,8.0,65,0.00,OVC,,0.00,WeatherDisplay:10.37,2013-07-07 09:45:00,
2013-07-07 04:47:00,73.0,61.0,29.98,SE,135,6.7,12.7,66,0.00,OVC,,0.00,WeatherDisplay:10.37,2013-07-07 09:47:00,
2013-07-07 04:49:00,73.0,60.5,29.98,ESE,112,4.4,11.5,65,0.00,OVC,,0.00,WeatherDisplay:10.37,2013-07-07 09:49:00,
2013-07-07 04:50:00,73.0,60.5,29.98,SE,135,6.3,12.7,65,0.00,OVC,,0.00,WeatherDisplay:10.37,2013-07-07 09:50:00,
2013-07-07 04:52:00,73.0,60.5,29.97,SW,225,3.8,6.9,65,0.00,OVC,,0.00,WeatherDisplay:10.37,2013-07-07 09:52:00,
2013-07-07 04:54:00,73.0,60.5,29.97,East,90,5.0,12.0,65,0.00,OVC,,0.00,WeatherDisplay:10.37,2013-07-07 09:54:00,
2013-07-07 04:55:00,73.0,60.5,29.97,SSE,157,7.1,11.5,65,0.00,OVC,,0.00,WeatherDisplay:10.37,2013-07-07 09:55:00,
2013-07-07 04:58:00,73.0,61.0,29.97,SW,225,5.3,9.2,66,0.00,OVC,,0.00,WeatherDisplay:10.37,2013-07-07 09:58:00,
2013-07-07 04:59:00,73.0,60.5,29.97,South,180,4.1,5.8,65,0.00,OVC,,0.00,WeatherDisplay:10.37,2013-07-07 09:59:00,
2013-07-07 05:00:00,73.0,61.0,29.97,WSW,247,4.7,8.0,66,0.00,OVC,,0.00,WeatherDisplay:10.37,2013-07-07 10:00:00,
2013-07-07 05:04:00,73.0,61.0,29.98,SSW,202,7.1,15.0,66,0.00,OVC,,0.00,WeatherDisplay:10.37,2013-07-07 10:04:00,
2013-07-07 05:05:00,73.0,61.0,29.98,South,180,6.6,11.5,66,0.00,OVC,,0.00,WeatherDisplay:10.37,2013-07-07 10:05:00,
2013-07-07 05:06:00,73.0,60.5,29.98,NE,45,4.6,9.2,65,0.00,OVC,,0.00,WeatherDisplay:10.37,2013-07-07 10:06:00,
2013-07-07 05:10:00,73.0,61.0,29.98,West,270,5.3,5.8,66,0.00,OVC,,0.00,WeatherDisplay:10.37,2013-07-07 10:10:00,
2013-07-07 05:11:00,73.0,60.5,29.97,West,270,6.3,9.2,65,0.00,OVC,,0.00,WeatherDisplay:10.37,2013-07-07 10:11:00,
2013-07-07 05:15:00,73.0,61.0,29.97,SSE,157,4.6,10.4,66,0.00,OVC,,0.00,WeatherDisplay:10.37,2013-07-07 10:15:00,
2013-07-07 05:16:00,73.0,61.0,29.97,South,180,4.1,8.1,66,0.00,OVC,,0.00,WeatherDisplay:10.37,2013-07-07 10:16:00,
2013-07-07 05:20:00,73.0,61.0,29.97,West,270,1.3,7.0,66,0.00,OVC,,0.00,WeatherDisplay:10.37,2013-07-07 10:20:00,
2013-07-07 05:21:00,73.0,61.0,29.97,South,180,8.4,16.0,66,0.00,OVC,,0.00,WeatherDisplay:10.37,2013-07-07 10:21:00,
2013-07-07 05:25:00,73.0,61.0,29.97,WNW,292,4.5,8.1,66,0.00,OVC,,0.00,WeatherDisplay:10.37,2013-07-07 10:25:00,
2013-07-07 05:26:00,73.0,61.0,29.97,South,180,3.7,8.1,66,0.00,OVC,,0.00,WeatherDisplay:10.37,2013-07-07 10:26:00,
2013-07-07 05:27:00,73.0,61.0,29.97,SW,225,2.6,9.2,66,0.00,OVC,,0.00,WeatherDisplay:10.37,2013-07-07 10:27:00,
2013-07-07 05:30:00,72.0,60.4,29.97,SSW,202,4.9,6.9,67,0.00,OVC,,0.00,WeatherDisplay:10.37,2013-07-07 10:30:00,
2013-07-07 05:31:00,73.0,61.0,29.97,SW,225,3.8,8.1,66,0.00,OVC,,0.00,WeatherDisplay:10.37,2013-07-07 10:31:00,
2013-07-07 05:32:00,72.0,60.4,29.97,SSW,202,7.8,12.7,67,0.00,OVC,,0.00,WeatherDisplay:10.37,2013-07-07 10:32:00,
2013-07-07 05:35:00,72.0,60.4,29.97,SSW,202,5.7,11.5,67,0.00,OVC,,0.00,WeatherDisplay:10.37,2013-07-07 10:35:00,
2013-07-07 05:36:00,72.0,60.4,29.97,SW,225,4.1,10.0,67,0.00,OVC,,0.00,WeatherDisplay:10.37,2013-07-07 10:36:00,
2013-07-07 05:37:00,72.0,60.4,29.97,SSW,202,5.4,11.5,67,0.00,OVC,,0.00,WeatherDisplay:10.37,2013-07-07 10:37:00,
2013-07-07 05:40:00,72.0,60.9,29.97,South,180,5.7,12.7,68,0.00,OVC,,0.00,WeatherDisplay:10.37,2013-07-07 10:40:00,
2013-07-07 05:42:00,72.0,60.9,29.98,ESE,112,4.4,9.2,68,0.00,OVC,,0.00,WeatherDisplay:10.37,2013-07-07 10:42:00,
2013-07-07 05:43:00,72.0,60.9,29.98,NNW,337,4.3,5.8,68,0.00,OVC,,0.00,WeatherDisplay:10.37,2013-07-07 10:43:00,
2013-07-07 05:45:00,72.0,60.9,29.98,ESE,112,4.5,9.2,68,0.00,OVC,,0.00,WeatherDisplay:10.37,2013-07-07 10:45:00,
2013-07-07 05:47:00,72.0,60.9,29.98,NNW,337,2.7,11.5,68,0.00,OVC,,0.00,WeatherDisplay:10.37,2013-07-07 10:47:00,
2013-07-07 05:48:00,72.0,60.9,29.98,WSW,247,4.4,8.0,68,0.00,OVC,,0.00,WeatherDisplay:10.37,2013-07-07 10:48:00,
2013-07-07 05:50:00,72.0,60.9,29.98,SSE,157,4.7,9.2,68,0.00,OVC,,0.00,WeatherDisplay:10.37,2013-07-07 10:50:00,
2013-07-07 05:52:00,72.0,60.9,29.98,SE,135,4.7,9.2,68,0.00,OVC,,0.00,WeatherDisplay:10.37,2013-07-07 10:52:00,
2013-07-07 05:53:00,72.0,60.9,29.98,SSW,202,5.4,9.2,68,0.00,OVC,,0.00,WeatherDisplay:10.37,2013-07-07 10:53:00,
2013-07-07 05:55:00,72.0,60.9,29.98,SSW,202,5.8,8.1,68,0.00,OVC,,0.00,WeatherDisplay:10.37,2013-07-07 10:55:00,
2013-07-07 05:57:00,72.0,60.9,29.98,ENE,67,4.3,10.4,68,0.00,OVC,,0.00,WeatherDisplay:10.37,2013-07-07 10:57:00,
2013-07-07 05:58:00,72.0,60.9,29.98,NNE,22,2.8,5.8,68,0.00,OVC,,0.00,WeatherDisplay:10.37,2013-07-07 10:58:00,
2013-07-07 06:00:00,72.0,61.3,29.98,NNE,22,3.1,11.5,69,0.00,OVC,,0.00,WeatherDisplay:10.37,2013-07-07 11:00:00,
2013-07-07 06:02:00,72.0,60.9,29.98,NE,45,5.9,8.1,68,0.00,OVC,,0.00,WeatherDisplay:10.37,2013-07-07 11:02:00,
2013-07-07 06:03:00,72.0,61.3,29.98,WSW,247,4.7,11.5,69,0.00,OVC,,0.00,WeatherDisplay:10.37,2013-07-07 11:03:00,
2013-07-07 06:05:00,72.0,61.3,29.98,West,270,3.0,5.8,69,0.00,OVC,,0.00,WeatherDisplay:10.37,2013-07-07 11:05:00,
2013-07-07 06:07:00,72.0,61.3,29.98,ENE,67,2.0,9.2,69,0.00,OVC,,0.00,WeatherDisplay:10.37,2013-07-07 11:07:00,
2013-07-07 06:08:00,72.0,61.7,29.98,WNW,292,4.5,6.9,70,0.00,OVC,,0.00,WeatherDisplay:10.37,2013-07-07 11:08:00,
2013-07-07 06:09:00,72.0,61.7,29.98,WNW,292,3.0,8.1,70,0.00,OVC,,0.00,WeatherDisplay:10.37,2013-07-07 11:09:00,
2013-07-07 06:10:00,72.0,61.3,29.98,SSE,157,4.0,11.5,69,0.00,OVC,,0.00,WeatherDisplay:10.37,2013-07-07 11:10:00,
2013-07-07 06:13:00,72.0,61.7,29.98,NNE,22,2.4,4.6,70,0.00,OVC,,0.00,WeatherDisplay:10.37,2013-07-07 11:13:00,
2013-07-07 06:14:00,72.0,61.7,29.98,ENE,67,6.3,11.5,70,0.00,OVC,,0.00,WeatherDisplay:10.37,2013-07-07 11:14:00,
2013-07-07 06:16:00,72.0,61.7,29.98,SSW,202,2.5,7.0,70,0.00,OVC,,0.00,WeatherDisplay:10.37,2013-07-07 11:16:00,
2013-07-07 06:18:00,72.0,61.7,29.98,SSW,202,5.6,11.5,70,0.00,OVC,,0.00,WeatherDisplay:10.37,2013-07-07 11:18:00,
2013-07-07 06:19:00,72.0,61.7,29.98,ESE,112,6.7,12.0,70,0.00,OVC,,0.00,WeatherDisplay:10.37,2013-07-07 11:19:00,
2013-07-07 06:21:00,73.0,62.2,29.98,ESE,112,4.3,10.4,69,0.00,OVC,,0.00,WeatherDisplay:10.37,2013-07-07 11:21:00,
2013-07-07 06:23:00,72.0,61.3,29.98,NE,45,1.6,4.0,69,0.00,OVC,,0.00,WeatherDisplay:10.37,2013-07-07 11:23:00,
2013-07-07 06:24:00,72.0,61.7,29.98,West,270,3.7,9.2,70,0.00,OVC,,0.00,WeatherDisplay:10.37,2013-07-07 11:24:00,
2013-07-07 06:26:00,72.0,61.7,29.98,SW,225,7.2,13.8,70,0.00,OVC,,0.00,WeatherDisplay:10.37,2013-07-07 11:26:00,
2013-07-07 06:28:00,72.0,61.7,29.98,SSE,157,2.8,5.8,70,0.00,OVC,,0.00,WeatherDisplay:10.37,2013-07-07 11:28:00,
2013-07-07 06:29:00,72.0,61.7,29.98,SE,135,1.4,6.9,70,0.00,OVC,,0.00,WeatherDisplay:10.37,2013-07-07 11:29:00,
2013-07-07 06:31:00,73.0,62.2,29.98,SSW,202,4.6,10.4,69,0.00,OVC,,0.00,WeatherDisplay:10.37,2013-07-07 11:31:00,
2013-07-07 06:32:00,72.0,61.7,29.98,SW,225,5.3,10.4,70,0.00,OVC,,0.00,WeatherDisplay:10.37,2013-07-07 11:32:00,
2013-07-07 06:33:00,72.0,61.7,29.98,SSW,202,3.8,10.4,70,0.00,OVC,,0.00,WeatherDisplay:10.37,2013-07-07 11:33:00,
2013-07-07 06:34:00,72.0,61.7,29.98,SW,225,3.8,6.9,70,0.00,OVC,,0.00,WeatherDisplay:10.37,2013-07-07 11:34:00,
2013-07-07 06:36:00,72.0,61.7,29.98,SSE,157,5.4,11.5,70,0.00,OVC,,0.00,WeatherDisplay:10.37,2013-07-07 11:36:00,
2013-07-07 06:37:00,72.0,61.7,29.98,NW,315,3.7,9.2,70,0.00,OVC,,0.00,WeatherDisplay:10.37,2013-07-07 11:37:00,
2013-07-07 06:39:00,72.0,61.7,29.98,SE,135,4.2,10.4,70,0.00,OVC,,0.00,WeatherDisplay:10.37,2013-07-07 11:39:00,
2013-07-07 06:41:00,73.0,62.6,29.98,SE,135,2.6,10.4,70,0.00,OVC,,0.00,WeatherDisplay:10.37,2013-07-07 11:41:00,
2013-07-07 06:42:00,73.0,62.6,29.98,WSW,247,2.9,9.2,70,0.00,OVC,,0.00,WeatherDisplay:10.37,2013-07-07 11:42:00,
2013-07-07 06:44:00,73.0,62.6,29.98,SSE,157,5.9,11.5,70,0.00,OVC,,0.00,WeatherDisplay:10.37,2013-07-07 11:44:00,
2013-07-07 06:45:00,73.0,62.6,29.98,SSE,157,5.7,9.2,70,0.00,OVC,,0.00,WeatherDisplay:10.37,2013-07-07 11:45:00,
2013-07-07 06:47:00,73.0,62.6,29.98,SW,225,4.3,6.9,70,0.00,OVC,,0.00,WeatherDisplay:10.37,2013-07-07 11:47:00,
2013-07-07 06:49:00,73.0,62.6,29.98,SW,225,3.6,11.5,70,0.00,OVC,,0.00,WeatherDisplay:10.37,2013-07-07 11:49:00,
2013-07-07 06:50:00,73.0,62.6,29.98,ESE,112,3.9,11.5,70,0.00,OVC,,0.00,WeatherDisplay:10.37,2013-07-07 11:50:00,
2013-07-07 06:52:00,73.0,62.6,29.98,SSE,157,4.7,10.4,70,0.00,OVC,,0.00,WeatherDisplay:10.37,2013-07-07 11:52:00,
2013-07-07 06:54:00,73.0,62.6,29.98,SW,225,3.9,10.4,70,0.00,OVC,,0.00,WeatherDisplay:10.37,2013-07-07 11:54:00,
2013-07-07 06:55:00,73.0,62.6,29.98,NW,315,4.8,9.2,70,0.00,OVC,,0.00,WeatherDisplay:10.37,2013-07-07 11:55:00,
2013-07-07 06:57:00,73.0,62.6,29.98,SSE,157,4.0,9.2,70,0.00,OVC,,0.00,WeatherDisplay:10.37,2013-07-07 11:57:00,
2013-07-07 07:00:00,73.0,62.6,29.98,SSE,157,4.8,6.9,70,0.00,OVC,,0.00,WeatherDisplay:10.37,2013-07-07 12:00:00,
2013-07-07 07:01:00,73.0,62.2,29.98,West,270,5.1,11.5,69,0.00,OVC,,0.00,WeatherDisplay:10.37,2013-07-07 12:01:00,
2013-07-07 07:02:00,73.0,62.6,29.98,NW,315,2.1,6.9,70,0.00,OVC,,0.00,WeatherDisplay:10.37,2013-07-07 12:02:00,
2013-07-07 07:03:00,73.0,62.6,29.98,West,270,1.2,6.0,70,0.00,OVC,,0.00,WeatherDisplay:10.37,2013-07-07 12:03:00,
2013-07-07 07:05:00,73.0,62.2,29.98,South,180,4.8,8.1,69,0.00,OVC,,0.00,WeatherDisplay:10.37,2013-07-07 12:05:00,
2013-07-07 07:06:00,73.0,62.2,29.98,ESE,112,4.6,9.2,69,0.00,OVC,,0.00,WeatherDisplay:10.37,2013-07-07 12:06:00,
2013-07-07 07:08:00,73.0,62.2,29.98,SSW,202,5.1,10.4,69,0.00,OVC,,0.00,WeatherDisplay:10.37,2013-07-07 12:08:00,
2013-07-07 07:10:00,73.0,62.2,29.98,East,90,4.0,8.1,69,0.00,OVC,,0.00,WeatherDisplay:10.37,2013-07-07 12:10:00,
2013-07-07 07:11:00,74.0,62.8,29.97,NE,45,3.8,10.4,68,0.00,OVC,,0.00,WeatherDisplay:10.37,2013-07-07 12:11:00,
2013-07-07 07:13:00,74.0,62.8,29.97,WSW,247,3.4,5.8,68,0.00,OVC,,0.00,WeatherDisplay:10.37,2013-07-07 12:13:00,
2013-07-07 07:15:00,74.0,63.2,29.97,SW,225,3.3,6.9,69,0.00,OVC,,0.00,WeatherDisplay:10.37,2013-07-07 12:15:00,
2013-07-07 07:16:00,74.0,62.8,29.97,NNE,22,3.2,8.1,68,0.00,OVC,,0.00,WeatherDisplay:10.37,2013-07-07 12:16:00,
2013-07-07 07:17:00,74.0,62.8,29.97,ESE,112,3.8,8.1,68,0.00,OVC,,0.00,WeatherDisplay:10.37,2013-07-07 12:17:00,
2013-07-07 07:18:00,74.0,62.8,29.97,SSE,157,5.2,10.4,68,0.00,OVC,,0.00,WeatherDisplay:10.37,2013-07-07 12:18:00,
2013-07-07 07:21:00,74.0,62.8,29.97,WSW,247,7.1,11.5,68,0.00,OVC,,0.00,WeatherDisplay:10.37,2013-07-07 12:21:00,
2013-07-07 07:22:00,74.0,62.8,29.97,WSW,247,6.9,12.7,68,0.00,OVC,,0.00,WeatherDisplay:10.37,2013-07-07 12:22:00,
2013-07-07 07:23:00,74.0,62.8,29.97,WSW,247,4.9,11.5,68,0.00,OVC,,0.00,WeatherDisplay:10.37,2013-07-07 12:23:00,
2013-07-07 07:26:00,74.0,62.8,29.97,South,180,3.7,10.4,68,0.00,OVC,,0.00,WeatherDisplay:10.37,2013-07-07 12:26:00,
2013-07-07 07:27:00,74.0,62.8,29.97,SSW,202,2.8,5.8,68,0.00,OVC,,0.00,WeatherDisplay:10.37,2013-07-07 12:27:00,
2013-07-07 07:28:00,75.0,63.3,29.97,South,180,5.5,9.2,67,0.00,OVC,,0.00,WeatherDisplay:10.37,2013-07-07 12:28:00,
2013-07-07 07:31:00,75.0,62.9,29.97,South,180,5.7,14.0,66,0.00,OVC,,0.00,WeatherDisplay:10.37,2013-07-07 12:31:00,
2013-07-07 07:32:00,75.0,62.9,29.97,South,180,7.1,13.8,66,0.00,OVC,,0.00,WeatherDisplay:10.37,2013-07-07 12:32:00,
2013-07-07 07:33:00,75.0,63.3,29.97,South,180,6.5,11.5,67,0.00,OVC,,0.00,WeatherDisplay:10.37,2013-07-07 12:33:00,
2013-07-07 07:36:00,75.0,63.3,29.97,SW,225,5.7,10.4,67,0.00,OVC,,0.00,WeatherDisplay:10.37,2013-07-07 12:36:00,
2013-07-07 07:37:00,75.0,63.3,29.97,SE,135,4.8,11.5,67,0.00,OVC,,0.00,WeatherDisplay:10.37,2013-07-07 12:37:00,
2013-07-07 07:38:00,75.0,63.3,29.97,WSW,247,2.4,11.5,67,0.00,OVC,,0.00,WeatherDisplay:10.37,2013-07-07 12:38:00,
2013-07-07 07:39:00,75.0,63.3,29.97,SSE,157,3.2,6.9,67,0.00,OVC,,0.00,WeatherDisplay:10.37,2013-07-07 12:39:00,
2013-07-07 07:41:00,75.0,62.9,29.96,South,180,3.2,10.0,66,0.00,OVC,,0.00,WeatherDisplay:10.37,2013-07-07 12:41:00,
2013-07-07 07:43:00,75.0,62.9,29.96,NW,315,2.4,5.8,66,0.00,OVC,,0.00,WeatherDisplay:10.37,2013-07-07 12:43:00,
2013-07-07 07:44:00,75.0,62.9,29.96,ENE,67,6.0,9.2,66,0.00,OVC,,0.00,WeatherDisplay:10.37,2013-07-07 12:44:00,
2013-07-07 07:47:00,75.0,62.9,29.96,SE,135,5.5,6.9,66,0.00,OVC,,0.00,WeatherDisplay:10.37,2013-07-07 12:47:00,
2013-07-07 07:48:00,75.0,62.9,29.96,NNW,337,6.3,13.8,66,0.00,OVC,,0.00,WeatherDisplay:10.37,2013-07-07 12:48:00,
2013-07-07 07:49:00,76.0,64.2,29.96,South,180,4.1,8.1,67,0.00,OVC,,0.00,WeatherDisplay:10.37,2013-07-07 12:49:00,
2013-07-07 07:52:00,76.0,64.2,29.96,NNE,22,4.0,10.4,67,0.00,OVC,,0.00,WeatherDisplay:10.37,2013-07-07 12:52:00,
2013-07-07 07:53:00,76.0,64.2,29.96,SSW,202,2.8,8.0,67,0.00,OVC,,0.00,WeatherDisplay:10.37,2013-07-07 12:53:00,
2013-07-07 07:54:00,76.0,64.2,29.96,SW,225,6.7,11.5,67,0.00,OVC,,0.00,WeatherDisplay:10.37,2013-07-07 12:54:00,
2013-07-07 07:55:00,76.0,64.2,29.96,South,180,1.7,10.4,67,0.00,OVC,,0.00,WeatherDisplay:10.37,2013-07-07 12:55:00,
2013-07-07 07:57:00,76.0,64.2,29.96,SSE,157,2.0,5.8,67,0.00,OVC,,0.00,WeatherDisplay:10.37,2013-07-07 12:57:00,
2013-07-07 07:58:00,76.0,64.2,29.96,South,180,4.4,5.8,67,0.00,OVC,,0.00,WeatherDisplay:10.37,2013-07-07 12:58:00,
2013-07-07 07:59:00,76.0,64.2,29.96,South,180,5.6,11.5,67,0.00,OVC,,0.00,WeatherDisplay:10.37,2013-07-07 12:59:00,
2013-07-07 08:00:00,76.0,63.8,29.96,SSE,157,4.1,11.5,66,0.00,OVC,,0.00,WeatherDisplay:10.37,2013-07-07 13:00:00,
2013-07-07 08:02:00,76.0,63.8,29.96,SSE,157,2.7,8.1,66,0.00,OVC,,0.00,WeatherDisplay:10.37,2013-07-07 13:02:00,
2013-07-07 08:04:00,76.0,63.8,29.96,ESE,112,6.8,10.4,66,0.00,OVC,,0.00,WeatherDisplay:10.37,2013-07-07 13:04:00,
2013-07-07 08:05:00,76.0,63.8,29.96,WNW,292,2.4,6.9,66,0.00,OVC,,0.00,WeatherDisplay:10.37,2013-07-07 13:05:00,
2013-07-07 08:07:00,77.0,64.8,29.96,South,180,3.1,8.1,66,0.00,OVC,,0.00,WeatherDisplay:10.37,2013-07-07 13:07:00,
2013-07-07 08:09:00,77.0,64.3,29.96,SSE,157,3.1,9.2,65,0.00,OVC,,0.00,WeatherDisplay:10.37,2013-07-07 13:09:00,
2013-07-07 08:10:00,77.0,64.8,29.96,WNW,292,6.4,12.7,66,0.00,OVC,,0.00,WeatherDisplay:10.37,2013-07-07 13:10:00,
2013-07-07 08:12:00,77.0,64.8,29.95,NW,315,6.0,11.5,66,0.00,OVC,,0.00,WeatherDisplay:10.37,2013-07-07 13:12:00,
2013-07-07 08:14:00,77.0,64.8,29.95,South,180,1.5,4.0,66,0.00,OVC,,0.00,WeatherDisplay:10.37,2013-07-07 13:14:00,
2013-07-07 08:15:00,77.0,64.8,29.95,SSW,202,2.9,4.6,66,0.00,OVC,,0.00,WeatherDisplay:10.37,2013-07-07 13:15:00,
2013-07-07 08:16:00,77.0,64.3,29.95,SSW,202,3.7,8.0,65,0.00,OVC,,0.00,WeatherDisplay:10.37,2013-07-07 13:16:00,
2013-07-07 08:17:00,77.0,64.8,29.95,South,180,6.8,11.5,66,0.00,OVC,,0.00,WeatherDisplay:10.37,2013-07-07 13:17:00,
2013-07-07 08:19:00,77.0,64.8,29.95,SSE,157,4.6,11.0,66,0.00,OVC,,0.00,WeatherDisplay:10.37,2013-07-07 13:19:00,
2013-07-07 08:20:00,77.0,64.8,29.95,South,180,6.8,15.0,66,0.00,OVC,,0.00,WeatherDisplay:10.37,2013-07-07 13:20:00,
2013-07-07 08:21:00,77.0,64.3,29.95,South,180,8.2,15.0,65,0.00,OVC,,0.00,WeatherDisplay:10.37,2013-07-07 13:21:00,
2013-07-07 08:23:00,77.0,64.3,29.95,SW,225,4.7,11.5,65,0.00,OVC,,0.00,WeatherDisplay:10.37,2013-07-07 13:23:00,
2013-07-07 08:24:00,77.0,64.8,29.95,ESE,112,7.4,16.1,66,0.00,OVC,,0.00,WeatherDisplay:10.37,2013-07-07 13:24:00,
2013-07-07 08:26:00,77.0,64.8,29.95,South,180,4.4,9.2,66,0.00,OVC,,0.00,WeatherDisplay:10.37,2013-07-07 13:26:00,
2013-07-07 08:28:00,77.0,65.2,29.95,SW,225,3.2,5.8,67,0.00,OVC,,0.00,WeatherDisplay:10.37,2013-07-07 13:28:00,
2013-07-07 08:29:00,77.0,64.8,29.95,ESE,112,6.8,8.1,66,0.00,OVC,,0.00,WeatherDisplay:10.37,2013-07-07 13:29:00,
2013-07-07 08:30:00,77.0,64.3,29.95,West,270,7.3,9.0,65,0.00,OVC,,0.00,WeatherDisplay:10.37,2013-07-07 13:30:00,
2013-07-07 08:31:00,77.0,63.9,29.95,West,270,7.9,16.1,64,0.00,OVC,,0.00,WeatherDisplay:10.37,2013-07-07 13:31:00,
2013-07-07 08:33:00,77.0,64.3,29.95,SE,135,5.7,13.8,65,0.00,OVC,,0.00,WeatherDisplay:10.37,2013-07-07 13:33:00,
2013-07-07 08:34:00,77.0,64.8,29.95,South,180,3.5,10.4,66,0.00,OVC,,0.00,WeatherDisplay:10.37,2013-07-07 13:34:00,
2013-07-07 08:35:00,77.0,64.8,29.95,West,270,4.2,5.8,66,0.00,OVC,,0.00,WeatherDisplay:10.37,2013-07-07 13:35:00,
2013-07-07 08:36:00,77.0,64.8,29.95,SSW,202,6.4,6.9,66,0.00,OVC,,0.00,WeatherDisplay:10.37,2013-07-07 13:36:00,
2013-07-07 08:38:00,78.0,65.3,29.95,West,270,5.1,15.0,65,0.00,OVC,,0.00,WeatherDisplay:10.37,2013-07-07 13:38:00,
2013-07-07 08:39:00,78.0,65.3,29.95,West,270,5.3,10.4,65,0.00,OVC,,0.00,WeatherDisplay:10.37,2013-07-07 13:39:00,
2013-07-07 08:41:00,78.0,64.8,29.94,North,360,2.9,6.9,64,0.00,OVC,,0.00,WeatherDisplay:10.37,2013-07-07 13:41:00,
2013-07-07 08:42:00,78.0,64.8,29.94,SSE,157,6.4,11.0,64,0.00,OVC,,0.00,WeatherDisplay:10.37,2013-07-07 13:42:00,
2013-07-07 08:44:00,78.0,64.8,29.94,SW,225,7.2,11.5,64,0.00,OVC,,0.00,WeatherDisplay:10.37,2013-07-07 13:44:00,
2013-07-07 08:46:00,78.0,64.8,29.94,West,270,8.0,11.5,64,0.00,OVC,,0.00,WeatherDisplay:10.37,2013-07-07 13:46:00,
2013-07-07 08:47:00,78.0,65.3,29.94,SSW,202,5.3,10.4,65,0.00,OVC,,0.00,WeatherDisplay:10.37,2013-07-07 13:47:00,
2013-07-07 08:49:00,78.0,65.3,29.94,SSW,202,2.6,8.1,65,0.00,OVC,,0.00,WeatherDisplay:10.37,2013-07-07 13:49:00,
2013-07-07 08:50:00,78.0,65.3,29.94,SW,225,4.7,9.2,65,0.00,OVC,,0.00,WeatherDisplay:10.37,2013-07-07 13:50:00,
2013-07-07 08:51:00,78.0,64.4,29.94,NW,315,6.4,6.9,63,0.00,OVC,,0.00,WeatherDisplay:10.37,2013-07-07 13:51:00,
2013-07-07 08:52:00,78.0,64.8,29.94,SSW,202,7.6,13.8,64,0.00,OVC,,0.00,WeatherDisplay:10.37,2013-07-07 13:52:00,
2013-07-07 08:54:00,78.0,64.8,29.94,South,180,4.4,8.1,64,0.00,OVC,,0.00,WeatherDisplay:10.37,2013-07-07 13:54:00,
2013-07-07 08:55:00,78.0,64.8,29.94,SSE,157,6.8,10.4,64,0.00,OVC,,0.00,WeatherDisplay:10.37,2013-07-07 13:55:00,
2013-07-07 08:56:00,78.0,64.8,29.94,WNW,292,5.8,10.4,64,0.00,OVC,,0.00,WeatherDisplay:10.37,2013-07-07 13:56:00,
2013-07-07 08:57:00,78.0,64.8,29.94,West,270,6.3,11.5,64,0.00,OVC,,0.00,WeatherDisplay:10.37,2013-07-07 13:57:00,
2013-07-07 08:59:00,79.0,65.3,29.94,South,180,6.7,10.4,63,0.00,OVC,,0.00,WeatherDisplay:10.37,2013-07-07 13:59:00,
2013-07-07 09:00:00,79.0,65.8,29.94,NNW,337,3.7,10.4,64,0.00,OVC,,0.00,WeatherDisplay:10.37,2013-07-07 14:00:00,
2013-07-07 09:02:00,79.0,65.8,29.94,South,180,4.3,6.9,64,0.00,OVC,,0.00,WeatherDisplay:10.37,2013-07-07 14:02:00,
2013-07-07 09:04:00,79.0,64.9,29.94,SW,225,5.4,10.4,62,0.00,OVC,,0.00,WeatherDisplay:10.37,2013-07-07 14:04:00,
2013-07-07 09:05:00,79.0,64.9,29.94,South,180,7.6,12.0,62,0.00,OVC,,0.00,WeatherDisplay:10.37,2013-07-07 14:05:00,
2013-07-07 09:07:00,79.0,65.3,29.94,South,180,7.1,12.7,63,0.00,OVC,,0.00,WeatherDisplay:10.37,2013-07-07 14:07:00,
2013-07-07 09:08:00,79.0,65.3,29.94,East,90,4.0,10.4,63,0.00,OVC,,0.00,WeatherDisplay:10.37,2013-07-07 14:08:00,
2013-07-07 09:09:00,79.0,65.8,29.94,NW,315,3.7,6.9,64,0.00,OVC,,0.00,WeatherDisplay:10.37,2013-07-07 14:09:00,
2013-07-07 09:10:00,79.0,65.8,29.94,SE,135,5.3,13.0,64,0.00,OVC,,0.00,WeatherDisplay:10.37,2013-07-07 14:10:00,
2013-07-07 09:12:00,79.0,65.3,29.93,SE,135,6.5,11.5,63,0.00,OVC,,0.00,WeatherDisplay:10.37,2013-07-07 14:12:00,
2013-07-07 09:13:00,79.0,65.3,29.93,SSW,202,4.5,10.4,63,0.00,OVC,,0.00,WeatherDisplay:10.37,2013-07-07 14:13:00,
2013-07-07 09:14:00,79.0,65.8,29.93,WSW,247,4.8,10.4,64,0.00,OVC,,0.00,WeatherDisplay:10.37,2013-07-07 14:14:00,
2013-07-07 09:15:00,79.0,65.8,29.93,SW,225,7.8,15.0,64,0.00,OVC,,0.00,WeatherDisplay:10.37,2013-07-07 14:15:00,
2013-07-07 09:17:00,79.0,64.9,29.93,WSW,247,6.6,11.5,62,0.00,OVC,,0.00,WeatherDisplay:10.37,2013-07-07 14:17:00,
2013-07-07 09:18:00,79.0,64.9,29.93,South,180,4.3,15.0,62,0.00,OVC,,0.00,WeatherDisplay:10.37,2013-07-07 14:18:00,
2013-07-07 09:19:00,79.0,64.9,29.93,WNW,292,5.6,11.5,62,0.00,OVC,,0.00,WeatherDisplay:10.37,2013-07-07 14:19:00,
2013-07-07 09:20:00,79.0,65.8,29.93,WNW,292,3.1,10.4,64,0.00,OVC,,0.00,WeatherDisplay:10.37,2013-07-07 14:20:00,
2013-07-07 09:23:00,80.0,66.3,29.93,SSW,202,3.8,5.8,63,0.00,OVC,,0.00,WeatherDisplay:10.37,2013-07-07 14:23:00,
2013-07-07 09:24:00,80.0,65.8,29.93,SE,135,4.8,5.8,62,0.00,OVC,,0.00,WeatherDisplay:10.37,2013-07-07 14:24:00,
2013-07-07 09:25:00,80.0,65.8,29.93,SSW,202,5.4,11.5,62,0.00,OVC,,0.00,WeatherDisplay:10.37,2013-07-07 14:25:00,
2013-07-07 09:26:00,80.0,66.3,29.93,SSW,202,4.5,9.2,63,0.00,OVC,,0.00,WeatherDisplay:10.37,2013-07-07 14:26:00,
2013-07-07 09:28:00,80.0,65.3,29.93,SW,225,7.1,13.8,61,0.00,OVC,,0.00,WeatherDisplay:10.37,2013-07-07 14:28:00,
2013-07-07 09:29:00,80.0,65.8,29.93,WNW,292,7.9,13.8,62,0.00,OVC,,0.00,WeatherDisplay:10.37,2013-07-07 14:29:00,
2013-07-07 09:30:00,80.0,66.3,29.93,WNW,292,6.1,10.4,63,0.00,OVC,,0.00,WeatherDisplay:10.37,2013-07-07 14:30:00,
2013-07-07 09:31:00,80.0,66.3,29.93,WSW,247,5.2,10.4,63,0.00,OVC,,0.00,WeatherDisplay:10.37,2013-07-07 14:31:00,
2013-07-07 09:33:00,80.0,65.8,29.93,WSW,247,6.2,10.4,62,0.00,OVC,,0.00,WeatherDisplay:10.37,2013-07-07 14:33:00,
2013-07-07 09:34:00,80.0,66.3,29.93,SSW,202,5.9,10.4,63,0.00,OVC,,0.00,WeatherDisplay:10.37,2013-07-07 14:34:00,
2013-07-07 09:35:00,80.0,65.8,29.93,West,270,5.3,9.2,62,0.00,OVC,,0.00,WeatherDisplay:10.37,2013-07-07 14:35:00,
2013-07-07 09:36:00,80.0,65.8,29.93,West,270,6.9,16.1,62,0.00,OVC,,0.00,WeatherDisplay:10.37,2013-07-07 14:36:00,
2013-07-07 09:38:00,80.0,65.8,29.93,SW,225,5.7,9.2,62,0.00,OVC,,0.00,WeatherDisplay:10.37,2013-07-07 14:38:00,
2013-07-07 09:39:00,80.0,65.8,29.93,SSW,202,7.2,11.5,62,0.00,OVC,,0.00,WeatherDisplay:10.37,2013-07-07 14:39:00,
2013-07-07 09:40:00,80.0,65.8,29.93,South,180,5.8,12.7,62,0.00,OVC,,0.00,WeatherDisplay:10.37,2013-07-07 14:40:00,
2013-07-07 09:41:00,81.0,66.3,29.93,SE,135,4.5,11.5,61,0.00,OVC,,0.00,WeatherDisplay:10.37,2013-07-07 14:41:00,
2013-07-07 09:42:00,80.0,65.3,29.93,West,270,8.2,17.3,61,0.00,OVC,,0.00,WeatherDisplay:10.37,2013-07-07 14:42:00,
2013-07-07 09:43:00,80.0,65.3,29.93,SSW,202,5.8,11.5,61,0.00,OVC,,0.00,WeatherDisplay:10.37,2013-07-07 14:43:00,
2013-07-07 09:44:00,80.0,65.3,29.93,NW,315,5.7,11.5,61,0.00,OVC,,0.00,WeatherDisplay:10.37,2013-07-07 14:44:00,
2013-07-07 09:45:00,80.0,65.3,29.93,WNW,292,6.0,11.5,61,0.00,OVC,,0.00,WeatherDisplay:10.37,2013-07-07 14:45:00,
2013-07-07 09:46:00,80.0,65.3,29.93,SW,225,8.6,15.0,61,0.00,OVC,,0.00,WeatherDisplay:10.37,2013-07-07 14:46:00,
2013-07-07 09:47:00,80.0,65.3,29.93,NE,45,7.3,17.3,61,0.00,OVC,,0.00,WeatherDisplay:10.37,2013-07-07 14:47:00,
2013-07-07 09:48:00,80.0,65.3,29.93,West,270,5.8,11.5,61,0.00,OVC,,0.00,WeatherDisplay:10.37,2013-07-07 14:48:00,
2013-07-07 09:50:00,80.0,65.3,29.93,NNW,337,5.3,11.5,61,0.00,OVC,,0.00,WeatherDisplay:10.37,2013-07-07 14:50:00,
2013-07-07 09:51:00,81.0,66.3,29.92,WSW,247,8.3,11.5,61,0.00,OVC,,0.00,WeatherDisplay:10.37,2013-07-07 14:51:00,
2013-07-07 09:52:00,80.0,65.3,29.92,SSW,202,7.9,12.0,61,0.00,OVC,,0.00,WeatherDisplay:10.37,2013-07-07 14:52:00,
2013-07-07 09:53:00,80.0,65.8,29.92,West,270,2.8,11.5,62,0.00,OVC,,0.00,WeatherDisplay:10.37,2013-07-07 14:53:00,
2013-07-07 09:55:00,81.0,66.3,29.92,ESE,112,4.8,10.4,61,0.00,OVC,,0.00,WeatherDisplay:10.37,2013-07-07 14:55:00,
2013-07-07 09:57:00,81.0,65.8,29.92,South,180,5.9,10.4,60,0.00,OVC,,0.00,WeatherDisplay:10.37,2013-07-07 14:57:00,
2013-07-07 09:59:00,81.0,65.8,29.92,WSW,247,6.1,11.5,60,0.00,OVC,,0.00,WeatherDisplay:10.37,2013-07-07 14:59:00,
2013-07-07 10:01:00,81.0,66.3,29.92,SW,225,4.8,9.2,61,0.00,OVC,,0.00,WeatherDisplay:10.37,2013-07-07 15:01:00,
2013-07-07 10:02:00,81.0,65.8,29.92,West,270,5.0,8.1,60,0.00,OVC,,0.00,WeatherDisplay:10.37,2013-07-07 15:02:00,
2013-07-07 10:04:00,82.0,66.3,29.92,WNW,292,7.9,18.4,59,0.00,OVC,,0.00,WeatherDisplay:10.37,2013-07-07 15:04:00,
2013-07-07 10:06:00,81.0,65.3,29.92,SSW,202,7.0,11.5,59,0.00,OVC,,0.00,WeatherDisplay:10.37,2013-07-07 15:06:00,
2013-07-07 10:07:00,81.0,65.8,29.92,West,270,7.5,11.5,60,0.00,OVC,,0.00,WeatherDisplay:10.37,2013-07-07 15:07:00,
2013-07-07 10:08:00,81.0,66.3,29.92,SSE,157,7.8,15.0,61,0.00,OVC,,0.00,WeatherDisplay:10.37,2013-07-07 15:08:00,
2013-07-07 10:09:00,81.0,66.3,29.92,SSW,202,7.2,12.7,61,0.00,OVC,,0.00,WeatherDisplay:10.37,2013-07-07 15:09:00,
2013-07-07 10:11:00,81.0,65.8,29.91,WSW,247,5.3,10.4,60,0.00,OVC,,0.00,WeatherDisplay:10.37,2013-07-07 15:11:00,
2013-07-07 10:12:00,81.0,66.3,29.91,West,270,2.2,9.2,61,0.00,OVC,,0.00,WeatherDisplay:10.37,2013-07-07 15:12:00,
2013-07-07 10:13:00,82.0,66.7,29.91,North,360,2.6,4.6,60,0.00,OVC,,0.00,WeatherDisplay:10.37,2013-07-07 15:13:00,
2013-07-07 10:14:00,82.0,66.7,29.91,ENE,67,6.5,10.4,60,0.00,OVC,,0.00,WeatherDisplay:10.37,2013-07-07 15:14:00,
2013-07-07 10:16:00,82.0,65.8,29.91,East,90,6.4,11.0,58,0.00,OVC,,0.00,WeatherDisplay:10.37,2013-07-07 15:16:00,
2013-07-07 10:17:00,82.0,66.3,29.91,SSW,202,5.4,12.7,59,0.00,OVC,,0.00,WeatherDisplay:10.37,2013-07-07 15:17:00,
2013-07-07 10:18:00,82.0,66.3,29.91,WSW,247,5.8,9.2,59,0.00,OVC,,0.00,WeatherDisplay:10.37,2013-07-07 15:18:00,
2013-07-07 10:20:00,82.0,66.3,29.91,West,270,7.5,12.7,59,0.00,OVC,,0.00,WeatherDisplay:10.37,2013-07-07 15:20:00,
2013-07-07 10:21:00,82.0,65.8,29.92,SW,225,8.9,12.7,58,0.00,OVC,,0.00,WeatherDisplay:10.37,2013-07-07 15:21:00,
2013-07-07 10:22:00,82.0,66.3,29.92,WSW,247,7.0,12.7,59,0.00,OVC,,0.00,WeatherDisplay:10.37,2013-07-07 15:22:00,
2013-07-07 10:23:00,82.0,66.3,29.92,WSW,247,9.4,10.4,59,0.00,OVC,,0.00,WeatherDisplay:10.37,2013-07-07 15:23:00,
2013-07-07 10:25:00,82.0,67.2,29.92,WNW,292,3.3,6.9,61,0.00,OVC,,0.00,WeatherDisplay:10.37,2013-07-07 15:25:00,
2013-07-07 10:27:00,82.0,66.7,29.92,WNW,292,6.8,11.5,60,0.00,OVC,,0.00,WeatherDisplay:10.37,2013-07-07 15:27:00,
2013-07-07 10:28:00,82.0,66.3,29.92,SW,225,6.6,10.4,59,0.00,OVC,,0.00,WeatherDisplay:10.37,2013-07-07 15:28:00,
2013-07-07 10:29:00,82.0,66.3,29.92,WNW,292,7.3,13.8,59,0.00,OVC,,0.00,WeatherDisplay:10.37,2013-07-07 15:29:00,
2013-07-07 10:31:00,82.0,66.3,29.92,SSW,202,7.7,13.8,59,0.00,OVC,,0.00,WeatherDisplay:10.37,2013-07-07 15:31:00,
2013-07-07 10:32:00,82.0,65.8,29.92,WNW,292,3.5,11.5,58,0.00,OVC,,0.00,WeatherDisplay:10.37,2013-07-07 15:32:00,
2013-07-07 10:34:00,82.0,65.8,29.92,WSW,247,6.2,11.5,58,0.00,OVC,,0.00,WeatherDisplay:10.37,2013-07-07 15:34:00,
2013-07-07 10:36:00,82.0,66.3,29.92,SW,225,5.9,11.5,59,0.00,OVC,,0.00,WeatherDisplay:10.37,2013-07-07 15:36:00,
2013-07-07 10:37:00,82.0,66.3,29.92,WNW,292,3.4,13.8,59,0.00,OVC,,0.00,WeatherDisplay:10.37,2013-07-07 15:37:00,
2013-07-07 10:39:00,83.0,66.2,29.92,ESE,112,5.3,9.2,57,0.00,OVC,,0.00,WeatherDisplay:10.37,2013-07-07 15:39:00,
2013-07-07 10:41:00,83.0,66.2,29.92,NNW,337,6.4,10.4,57,0.00,OVC,,0.00,WeatherDisplay:10.37,2013-07-07 15:41:00,
2013-07-07 10:42:00,83.0,66.2,29.92,SSE,157,5.5,10.4,57,0.00,OVC,,0.00,WeatherDisplay:10.37,2013-07-07 15:42:00,
2013-07-07 10:43:00,83.0,66.2,29.92,SW,225,6.6,13.8,57,0.00,OVC,,0.00,WeatherDisplay:10.37,2013-07-07 15:43:00,
2013-07-07 10:44:00,83.0,65.7,29.92,West,270,6.2,11.5,56,0.00,OVC,,0.00,WeatherDisplay:10.37,2013-07-07 15:44:00,
2013-07-07 10:45:00,83.0,65.7,29.92,WSW,247,6.2,12.0,56,0.00,OVC,,0.00,WeatherDisplay:10.37,2013-07-07 15:45:00,
2013-07-07 10:46:00,82.0,65.3,29.92,WNW,292,8.1,19.6,57,0.00,OVC,,0.00,WeatherDisplay:10.37,2013-07-07 15:46:00,
2013-07-07 10:48:00,83.0,67.2,29.92,WNW,292,7.3,12.7,59,0.00,OVC,,0.00,WeatherDisplay:10.37,2013-07-07 15:48:00,
2013-07-07 10:50:00,83.0,66.7,29.92,NNW,337,7.8,15.0,58,0.00,OVC,,0.00,WeatherDisplay:10.37,2013-07-07 15:50:00,
2013-07-07 10:51:00,83.0,66.2,29.92,South,180,8.1,9.2,57,0.00,OVC,,0.00,WeatherDisplay:10.37,2013-07-07 15:51:00,
2013-07-07 10:53:00,83.0,66.2,29.92,SW,225,5.2,10.4,57,0.00,OVC,,0.00,WeatherDisplay:10.37,2013-07-07 15:53:00,
2013-07-07 10:55:00,83.0,66.2,29.92,SSE,157,5.8,11.5,57,0.00,OVC,,0.00,WeatherDisplay:10.37,2013-07-07 15:55:00,
2013-07-07 10:57:00,83.0,65.7,29.92,SSW,202,5.3,10.4,56,0.00,OVC,,0.00,WeatherDisplay:10.37,2013-07-07 15:57:00,
2013-07-07 10:59:00,83.0,65.7,29.92,West,270,7.1,15.0,56,0.00,OVC,,0.00,WeatherDisplay:10.37,2013-07-07 15:59:00,
2013-07-07 11:00:00,82.0,65.3,29.92,WSW,247,9.7,16.1,57,0.00,OVC,,0.00,WeatherDisplay:10.37,2013-07-07 16:00:00,
2013-07-07 11:02:00,82.0,65.3,29.92,WSW,247,10.4,12.7,57,0.00,OVC,,0.00,WeatherDisplay:10.37,2013-07-07 16:02:00,
2013-07-07 11:04:00,82.0,65.3,29.92,WSW,247,8.5,12.7,57,0.00,OVC,,0.00,WeatherDisplay:10.37,2013-07-07 16:04:00,
2013-07-07 11:05:00,82.0,65.3,29.92,WSW,247,10.8,15.0,57,0.00,OVC,,0.00,WeatherDisplay:10.37,2013-07-07 16:05:00,
2013-07-07 11:07:00,82.0,66.3,29.92,SW,225,5.8,9.2,59,0.00,OVC,,0.00,WeatherDisplay:10.37,2013-07-07 16:07:00,
2013-07-07 11:09:00,82.0,65.8,29.92,South,180,5.5,8.0,58,0.00,OVC,,0.00,WeatherDisplay:10.37,2013-07-07 16:09:00,
2013-07-07 11:10:00,83.0,66.7,29.92,West,270,3.5,10.4,58,0.00,OVC,,0.00,WeatherDisplay:10.37,2013-07-07 16:10:00,
2013-07-07 11:11:00,83.0,66.7,29.92,NNW,337,4.5,8.1,58,0.00,OVC,,0.00,WeatherDisplay:10.37,2013-07-07 16:11:00,
2013-07-07 11:13:00,83.0,66.2,29.92,NW,315,10.0,13.8,57,0.00,OVC,,0.00,WeatherDisplay:10.37,2013-07-07 16:13:00,
2013-07-07 11:14:00,83.0,66.7,29.92,West,270,5.6,19.0,58,0.00,OVC,,0.00,WeatherDisplay:10.37,2013-07-07 16:14:00,
2013-07-07 11:15:00,83.0,65.7,29.92,West,270,10.0,23.0,56,0.00,OVC,,0.00,WeatherDisplay:10.37,2013-07-07 16:15:00,
2013-07-07 11:17:00,83.0,65.7,29.92,SSW,202,7.6,11.5,56,0.00,OVC,,0.00,WeatherDisplay:10.37,2013-07-07 16:17:00,
2013-07-07 11:18:00,83.0,65.7,29.92,SE,135,4.2,10.4,56,0.00,OVC,,0.00,WeatherDisplay:10.37,2013-07-07 16:18:00,
2013-07-07 11:19:00,83.0,66.2,29.92,ESE,112,2.4,5.8,57,0.00,OVC,,0.00,WeatherDisplay:10.37,2013-07-07 16:19:00,
2013-07-07 11:20:00,83.0,66.2,29.92,SSE,157,3.5,9.2,57,0.00,OVC,,0.00,WeatherDisplay:10.37,2013-07-07 16:20:00,
2013-07-07 11:21:00,83.0,65.7,29.92,West,270,6.2,13.8,56,0.00,OVC,,0.00,WeatherDisplay:10.37,2013-07-07 16:21:00,
2013-07-07 11:22:00,82.0,65.3,29.92,WSW,247,5.8,15.0,57,0.00,OVC,,0.00,WeatherDisplay:10.37,2013-07-07 16:22:00,
2013-07-07 11:23:00,82.0,65.8,29.92,WSW,247,6.5,19.6,58,0.00,OVC,,0.00,WeatherDisplay:10.37,2013-07-07 16:23:00,
2013-07-07 11:24:00,82.0,65.3,29.92,SW,225,8.8,11.0,57,0.00,OVC,,0.00,WeatherDisplay:10.37,2013-07-07 16:24:00,
2013-07-07 11:25:00,82.0,65.8,29.92,WSW,247,8.5,15.0,58,0.00,OVC,,0.00,WeatherDisplay:10.37,2013-07-07 16:25:00,
2013-07-07 11:26:00,82.0,65.8,29.92,SSW,202,6.5,10.4,58,0.00,OVC,,0.00,WeatherDisplay:10.37,2013-07-07 16:26:00,
2013-07-07 11:27:00,82.0,66.3,29.92,WSW,247,5.8,10.4,59,0.00,OVC,,0.00,WeatherDisplay:10.37,2013-07-07 16:27:00,
2013-07-07 11:29:00,82.0,66.7,29.92,WSW,247,7.7,10.4,60,0.00,OVC,,0.00,WeatherDisplay:10.37,2013-07-07 16:29:00,
2013-07-07 11:30:00,83.0,67.2,29.92,SE,135,5.9,8.1,59,0.00,OVC,,0.00,WeatherDisplay:10.37,2013-07-07 16:30:00,
2013-07-07 11:31:00,83.0,66.2,29.92,WSW,247,6.4,24.0,57,0.00,OVC,,0.00,WeatherDisplay:10.37,2013-07-07 16:31:00,
2013-07-07 11:33:00,83.0,66.7,29.92,SSW,202,3.7,12.7,58,0.00,OVC,,0.00,WeatherDisplay:10.37,2013-07-07 16:33:00,
2013-07-07 11:34:00,83.0,66.7,29.92,WNW,292,4.0,7.0,58,0.00,OVC,,0.00,WeatherDisplay:10.37,2013-07-07 16:34:00,
2013-07-07 11:35:00,83.0,66.7,29.92,West,270,5.0,8.1,58,0.00,OVC,,0.00,WeatherDisplay:10.37,2013-07-07 16:35:00,
2013-07-07 11:36:00,83.0,66.7,29.92,WSW,247,10.7,18.4,58,0.00,OVC,,0.00,WeatherDisplay:10.37,2013-07-07 16:36:00,
2013-07-07 11:38:00,82.0,65.8,29.92,WSW,247,6.3,12.0,58,0.00,OVC,,0.00,WeatherDisplay:10.37,2013-07-07 16:38:00,
2013-07-07 11:39:00,82.0,65.8,29.92,West,270,7.9,11.5,58,0.00,OVC,,0.00,WeatherDisplay:10.37,2013-07-07 16:39:00,
2013-07-07 11:40:00,82.0,66.3,29.92,West,270,9.2,15.0,59,0.00,OVC,,0.00,WeatherDisplay:10.37,2013-07-07 16:40:00,
2013-07-07 11:41:00,82.0,66.3,29.93,WNW,292,10.2,15.0,59,0.00,OVC,,0.00,WeatherDisplay:10.37,2013-07-07 16:41:00,
2013-07-07 11:42:00,82.0,66.3,29.93,SSE,157,5.7,12.7,59,0.00,OVC,,0.00,WeatherDisplay:10.37,2013-07-07 16:42:00,
2013-07-07 11:43:00,82.0,66.3,29.93,WSW,247,4.2,10.4,59,0.00,OVC,,0.00,WeatherDisplay:10.37,2013-07-07 16:43:00,
2013-07-07 11:44:00,82.0,66.3,29.93,SSW,202,3.7,6.9,59,0.00,OVC,,0.00,WeatherDisplay:10.37,2013-07-07 16:44:00,
2013-07-07 11:45:00,82.0,66.7,29.93,NW,315,2.7,7.0,60,0.00,OVC,,0.00,WeatherDisplay:10.37,2013-07-07 16:45:00,
2013-07-07 11:46:00,83.0,67.7,29.93,South,180,4.7,6.9,60,0.00,OVC,,0.00,WeatherDisplay:10.37,2013-07-07 16:46:00,
2013-07-07 11:47:00,83.0,67.2,29.93,SSE,157,3.6,8.1,59,0.00,OVC,,0.00,WeatherDisplay:10.37,2013-07-07 16:47:00,
2013-07-07 11:48:00,83.0,67.7,29.93,SSW,202,6.1,9.2,60,0.00,OVC,,0.00,WeatherDisplay:10.37,2013-07-07 16:48:00,
2013-07-07 11:50:00,83.0,66.2,29.93,WNW,292,3.4,6.9,57,0.00,OVC,,0.00,WeatherDisplay:10.37,2013-07-07 16:50:00,
2013-07-07 11:51:00,83.0,65.7,29.93,West,270,6.1,11.5,56,0.00,OVC,,0.00,WeatherDisplay:10.37,2013-07-07 16:51:00,
2013-07-07 11:52:00,83.0,66.2,29.93,NW,315,5.3,9.2,57,0.00,OVC,,0.00,WeatherDisplay:10.37,2013-07-07 16:52:00,
2013-07-07 11:54:00,83.0,66.2,29.93,West,270,7.0,10.4,57,0.00,OVC,,0.00,WeatherDisplay:10.37,2013-07-07 16:54:00,
2013-07-07 11:55:00,83.0,66.2,29.93,South,180,3.9,10.4,57,0.00,OVC,,0.00,WeatherDisplay:10.37,2013-07-07 16:55:00,
2013-07-07 11:56:00,83.0,65.7,29.93,WSW,247,4.4,8.1,56,0.00,OVC,,0.00,WeatherDisplay:10.37,2013-07-07 16:56:00,
2013-07-07 11:57:00,82.0,65.3,29.93,East,90,6.8,10.4,57,0.00,OVC,,0.00,WeatherDisplay:10.37,2013-07-07 16:57:00,
2013-07-07 11:59:00,82.0,65.3,29.93,WNW,292,8.4,9.2,57,0.00,OVC,,0.00,WeatherDisplay:10.37,2013-07-07 16:59:00,
2013-07-07 12:01:00,83.0,66.7,29.93,WSW,247,4.7,10.4,58,0.00,OVC,,0.00,WeatherDisplay:10.37,2013-07-07 17:01:00,
2013-07-07 12:02:00,82.0,65.3,29.93,NNW,337,6.5,10.4,57,0.00,OVC,,0.00,WeatherDisplay:10.37,2013-07-07 17:02:00,
2013-07-07 12:04:00,82.0,65.8,29.93,SW,225,5.2,11.5,58,0.00,OVC,,0.00,WeatherDisplay:10.37,2013-07-07 17:04:00,
2013-07-07 12:06:00,82.0,65.3,29.93,WNW,292,4.7,8.0,57,0.00,OVC,,0.00,WeatherDisplay:10.37,2013-07-07 17:06:00,
2013-07-07 12:07:00,82.0,65.8,29.93,WSW,247,6.8,8.1,58,0.00,OVC,,0.00,WeatherDisplay:10.37,2013-07-07 17:07:00,
2013-07-07 12:08:00,82.0,65.8,29.93,SW,225,5.8,8.1,58,0.00,OVC,,0.00,WeatherDisplay:10.37,2013-07-07 17:08:00,
2013-07-07 12:09:00,82.0,66.3,29.93,West,270,6.1,10.0,59,0.00,OVC,,0.00,WeatherDisplay:10.37,2013-07-07 17:09:00,
2013-07-07 12:11:00,82.0,66.3,29.94,ENE,67,5.3,11.5,59,0.00,OVC,,0.00,WeatherDisplay:10.37,2013-07-07 17:11:00,
2013-07-07 12:12:00,82.0,66.3,29.94,NNE,22,0.2,5.8,59,0.00,OVC,,0.00,WeatherDisplay:10.37,2013-07-07 17:12:00,
2013-07-07 12:13:00,82.0,65.8,29.94,NNE,22,0.3,1.2,58,0.00,OVC,,0.00,WeatherDisplay:10.37,2013-07-07 17:13:00,
2013-07-07 12:14:00,83.0,66.7,29.94,WSW,247,1.3,10.4,58,0.00,OVC,,0.00,WeatherDisplay:10.37,2013-07-07 17:14:00,
2013-07-07 12:16:00,83.0,66.2,29.94,South,180,6.5,11.5,57,0.00,OVC,,0.00,WeatherDisplay:10.37,2013-07-07 17:16:00,
2013-07-07 12:18:00,83.0,66.2,29.94,SSE,157,6.6,10.4,57,0.00,OVC,,0.00,WeatherDisplay:10.37,2013-07-07 17:18:00,
2013-07-07 12:20:00,82.0,66.3,29.94,West,270,5.9,7.0,59,0.00,OVC,,0.00,WeatherDisplay:10.37,2013-07-07 17:20:00,
2013-07-07 12:21:00,83.0,67.2,29.93,SSW,202,1.0,9.2,59,0.00,OVC,,0.00,WeatherDisplay:10.37,2013-07-07 17:21:00,
2013-07-07 12:22:00,83.0,67.2,29.93,SSW,202,2.1,9.2,59,0.00,OVC,,0.00,WeatherDisplay:10.37,2013-07-07 17:22:00,
2013-07-07 12:23:00,83.0,66.7,29.93,WNW,292,5.5,10.4,58,0.00,OVC,,0.00,WeatherDisplay:10.37,2013-07-07 17:23:00,
2013-07-07 12:25:00,83.0,65.7,29.93,West,270,3.6,8.0,56,0.00,OVC,,0.00,WeatherDisplay:10.37,2013-07-07 17:25:00,
2013-07-07 12:26:00,83.0,65.7,29.93,West,270,6.6,8.1,56,0.00,OVC,,0.00,WeatherDisplay:10.37,2013-07-07 17:26:00,
2013-07-07 12:27:00,83.0,65.2,29.93,South,180,5.1,9.2,55,0.00,OVC,,0.00,WeatherDisplay:10.37,2013-07-07 17:27:00,
2013-07-07 12:28:00,84.0,66.6,29.93,South,180,1.2,6.9,56,0.00,OVC,,0.00,WeatherDisplay:10.37,2013-07-07 17:28:00,
2013-07-07 12:30:00,84.0,66.6,29.93,SW,225,3.6,6.9,56,0.00,OVC,,0.00,WeatherDisplay:10.37,2013-07-07 17:30:00,
2013-07-07 12:31:00,84.0,66.1,29.93,WSW,247,6.2,13.8,55,0.00,OVC,,0.00,WeatherDisplay:10.37,2013-07-07 17:31:00,
2013-07-07 12:32:00,84.0,66.1,29.93,WNW,292,6.7,10.4,55,0.00,OVC,,0.00,WeatherDisplay:10.37,2013-07-07 17:32:00,
2013-07-07 12:33:00,84.0,67.1,29.93,SW,225,7.2,13.8,57,0.00,OVC,,0.00,WeatherDisplay:10.37,2013-07-07 17:33:00,
2013-07-07 12:35:00,84.0,66.6,29.93,West,270,3.2,7.0,56,0.00,OVC,,0.00,WeatherDisplay:10.37,2013-07-07 17:35:00,
2013-07-07 12:37:00,84.0,67.1,29.93,WNW,292,4.8,8.1,57,0.00,OVC,,0.00,WeatherDisplay:10.37,2013-07-07 17:37:00,
2013-07-07 12:38:00,84.0,67.1,29.93,West,270,3.8,8.1,57,0.00,OVC,,0.00,WeatherDisplay:10.37,2013-07-07 17:38:00,
2013-07-07 12:40:00,85.0,67.5,29.93,WSW,247,3.2,4.6,56,0.00,OVC,,0.00,WeatherDisplay:10.37,2013-07-07 17:40:00,
2013-07-07 12:42:00,85.0,66.5,29.92,ESE,112,3.1,6.9,54,0.00,OVC,,0.00,WeatherDisplay:10.37,2013-07-07 17:42:00,
2013-07-07 12:43:00,85.0,66.5,29.92,WNW,292,4.2,6.0,54,0.00,OVC,,0.00,WeatherDisplay:10.37,2013-07-07 17:43:00,
2013-07-07 12:46:00,86.0,66.9,29.92,WSW,247,6.8,11.5,53,0.00,OVC,,0.00,WeatherDisplay:10.37,2013-07-07 17:46:00,
2013-07-07 12:47:00,86.0,67.4,29.92,ESE,112,6.5,11.5,54,0.00,OVC,,0.00,WeatherDisplay:10.37,2013-07-07 17:47:00,
2013-07-07 12:48:00,86.0,66.3,29.92,SSW,202,3.7,6.9,52,0.00,OVC,,0.00,WeatherDisplay:10.37,2013-07-07 17:48:00,
2013-07-07 12:51:00,86.0,66.9,29.91,WSW,247,4.1,6.0,53,0.00,OVC,,0.00,WeatherDisplay:10.37,2013-07-07 17:51:00,
2013-07-07 12:52:00,86.0,66.9,29.91,West,270,4.3,8.1,53,0.00,OVC,,0.00,WeatherDisplay:10.37,2013-07-07 17:52:00,
2013-07-07 12:53:00,86.0,66.3,29.91,West,270,3.6,10.4,52,0.00,OVC,,0.00,WeatherDisplay:10.37,2013-07-07 17:53:00,
2013-07-07 12:56:00,87.0,66.7,29.91,SW,225,5.0,9.2,51,0.00,OVC,,0.00,WeatherDisplay:10.37,2013-07-07 17:56:00,
2013-07-07 12:57:00,87.0,66.7,29.91,WSW,247,3.3,7.0,51,0.00,OVC,,0.00,WeatherDisplay:10.37,2013-07-07 17:57:00,
2013-07-07 12:58:00,87.0,66.7,29.91,SSW,202,5.9,8.1,51,0.00,OVC,,0.00,WeatherDisplay:10.37,2013-07-07 17:58:00,
2013-07-07 12:59:00,87.0,66.1,29.91,WSW,247,6.8,10.4,50,0.00,OVC,,0.00,WeatherDisplay:10.37,2013-07-07 17:59:00,
2013-07-07 13:01:00,87.0,66.1,29.90,WSW,247,6.9,10.4,50,0.00,OVC,,0.00,WeatherDisplay:10.37,2013-07-07 18:01:00,
2013-07-07 13:03:00,86.0,66.3,29.90,West,270,7.2,11.5,52,0.00,OVC,,0.00,WeatherDisplay:10.37,2013-07-07 18:03:00,
2013-07-07 13:04:00,86.0,65.8,29.90,WSW,247,7.2,12.7,51,0.00,OVC,,0.00,WeatherDisplay:10.37,2013-07-07 18:04:00,
2013-07-07 13:06:00,85.0,65.4,29.90,WSW,247,9.9,12.7,52,0.00,OVC,,0.00,WeatherDisplay:10.37,2013-07-07 18:06:00,
2013-07-07 13:08:00,85.0,66.5,29.90,WSW,247,6.0,11.5,54,0.00,OVC,,0.00,WeatherDisplay:10.37,2013-07-07 18:08:00,
2013-07-07 13:09:00,85.0,66.0,29.90,WSW,247,7.4,10.4,53,0.00,OVC,,0.00,WeatherDisplay:10.37,2013-07-07 18:09:00,
2013-07-07 13:11:00,86.0,66.3,29.90,NW,315,1.5,9.2,52,0.00,OVC,,0.00,WeatherDisplay:10.37,2013-07-07 18:11:00,
2013-07-07 13:13:00,86.0,67.4,29.90,WSW,247,6.6,7.0,54,0.00,OVC,,0.00,WeatherDisplay:10.37,2013-07-07 18:13:00,
2013-07-07 13:14:00,86.0,67.4,29.90,WSW,247,6.8,10.4,54,0.00,OVC,,0.00,WeatherDisplay:10.37,2013-07-07 18:14:00,
2013-07-07 13:15:00,86.0,65.8,29.90,WSW,247,7.1,11.5,51,0.00,OVC,,0.00,WeatherDisplay:10.37,2013-07-07 18:15:00,
2013-07-07 13:16:00,86.0,65.8,29.90,WSW,247,9.0,12.7,51,0.00,OVC,,0.00,WeatherDisplay:10.37,2013-07-07 18:16:00,
2013-07-07 13:18:00,86.0,65.8,29.90,WSW,247,9.9,12.0,51,0.00,OVC,,0.00,WeatherDisplay:10.37,2013-07-07 18:18:00,
2013-07-07 13:19:00,86.0,65.8,29.90,WSW,247,10.2,13.8,51,0.00,OVC,,0.00,WeatherDisplay:10.37,2013-07-07 18:19:00,
2013-07-07 13:20:00,86.0,66.3,29.90,SW,225,4.7,11.5,52,0.00,OVC,,0.00,WeatherDisplay:10.37,2013-07-07 18:20:00,
2013-07-07 13:22:00,86.0,65.8,29.91,South,180,6.0,10.4,51,0.00,OVC,,0.00,WeatherDisplay:10.37,2013-07-07 18:22:00,
2013-07-07 13:24:00,86.0,65.8,29.91,South,180,5.9,9.2,51,0.00,OVC,,0.00,WeatherDisplay:10.37,2013-07-07 18:24:00,
2013-07-07 13:25:00,87.0,68.3,29.91,NW,315,2.6,4.6,54,0.00,OVC,,0.00,WeatherDisplay:10.37,2013-07-07 18:25:00,
2013-07-07 13:27:00,87.0,67.8,29.91,SW,225,3.0,5.8,53,0.00,OVC,,0.00,WeatherDisplay:10.37,2013-07-07 18:27:00,
2013-07-07 13:29:00,87.0,66.7,29.91,WSW,247,4.3,6.9,51,0.00,OVC,,0.00,WeatherDisplay:10.37,2013-07-07 18:29:00,
2013-07-07 13:30:00,87.0,65.5,29.91,SSW,202,4.6,8.1,49,0.00,OVC,,0.00,WeatherDisplay:10.37,2013-07-07 18:30:00,
2013-07-07 13:31:00,87.0,64.9,29.91,WSW,247,5.6,6.9,48,0.00,OVC,,0.00,WeatherDisplay:10.37,2013-07-07 18:31:00,
2013-07-07 13:33:00,87.0,66.1,29.91,SSE,157,0.6,10.4,50,0.00,OVC,,0.00,WeatherDisplay:10.37,2013-07-07 18:33:00,
2013-07-07 13:34:00,87.0,66.7,29.91,WNW,292,1.7,5.0,51,0.00,OVC,,0.00,WeatherDisplay:10.37,2013-07-07 18:34:00,
2013-07-07 13:35:00,88.0,66.4,29.91,SW,225,4.0,5.8,49,0.00,OVC,,0.00,WeatherDisplay:10.37,2013-07-07 18:35:00,
2013-07-07 13:36:00,88.0,66.4,29.91,South,180,3.5,6.9,49,0.00,OVC,,0.00,WeatherDisplay:10.37,2013-07-07 18:36:00,
2013-07-07 13:38:00,88.0,66.4,29.91,West,270,3.8,5.8,49,0.00,OVC,,0.00,WeatherDisplay:10.37,2013-07-07 18:38:00,
2013-07-07 13:39:00,88.0,67.0,29.91,WSW,247,3.6,5.8,50,0.00,OVC,,0.00,WeatherDisplay:10.37,2013-07-07 18:39:00,
2013-07-07 13:40:00,88.0,67.0,29.91,SSW,202,3.9,8.1,50,0.00,OVC,,0.00,WeatherDisplay:10.37,2013-07-07 18:40:00,
2013-07-07 13:41:00,88.0,67.0,29.91,South,180,4.7,8.1,50,0.00,OVC,,0.00,WeatherDisplay:10.37,2013-07-07 18:41:00,
2013-07-07 13:43:00,88.0,66.4,29.91,SSW,202,5.7,9.2,49,0.00,OVC,,0.00,WeatherDisplay:10.37,2013-07-07 18:43:00,
2013-07-07 13:45:00,88.0,66.4,29.91,SSW,202,3.5,5.8,49,0.00,OVC,,0.00,WeatherDisplay:10.37,2013-07-07 18:45:00,
2013-07-07 13:46:00,88.0,67.6,29.91,WSW,247,5.3,10.0,51,0.00,OVC,,0.00,WeatherDisplay:10.37,2013-07-07 18:46:00,
2013-07-07 13:49:00,87.0,65.5,29.91,WSW,247,2.2,5.0,49,0.00,OVC,,0.00,WeatherDisplay:10.37,2013-07-07 18:49:00,
2013-07-07 13:50:00,87.0,65.5,29.91,WSW,247,5.3,6.9,49,0.00,OVC,,0.00,WeatherDisplay:10.37,2013-07-07 18:50:00,
2013-07-07 13:51:00,88.0,67.6,29.91,WSW,247,4.7,6.9,51,0.00,OVC,,0.00,WeatherDisplay:10.37,2013-07-07 18:51:00,
2013-07-07 13:54:00,87.0,67.2,29.91,WSW,247,3.0,5.8,52,0.00,OVC,,0.00,WeatherDisplay:10.37,2013-07-07 18:54:00,
2013-07-07 13:55:00,88.0,68.2,29.91,SSW,202,1.3,5.8,52,0.00,OVC,,0.00,WeatherDisplay:10.37,2013-07-07 18:55:00,
2013-07-07 13:57:00,88.0,67.6,29.91,East,90,1.8,3.5,51,0.00,OVC,,0.00,WeatherDisplay:10.37,2013-07-07 18:57:00,
2013-07-07 13:59:00,87.0,66.7,29.91,WSW,247,8.8,15.0,51,0.00,OVC,,0.00,WeatherDisplay:10.37,2013-07-07 18:59:00,
2013-07-07 14:00:00,87.0,66.7,29.91,West,270,7.7,11.5,51,0.00,OVC,,0.00,WeatherDisplay:10.37,2013-07-07 19:00:00,
2013-07-07 14:02:00,87.0,67.2,29.90,WSW,247,2.0,9.2,52,0.00,OVC,,0.00,WeatherDisplay:10.37,2013-07-07 19:02:00,
2013-07-07 14:05:00,87.0,67.2,29.90,SW,225,3.0,6.0,52,0.00,OVC,,0.00,WeatherDisplay:10.37,2013-07-07 19:05:00,
2013-07-07 14:06:00,88.0,67.6,29.90,SW,225,3.2,5.8,51,0.00,OVC,,0.00,WeatherDisplay:10.37,2013-07-07 19:06:00,
2013-07-07 14:08:00,88.0,67.6,29.90,SSW,202,1.4,3.5,51,0.00,OVC,,0.00,WeatherDisplay:10.37,2013-07-07 19:08:00,
2013-07-07 14:10:00,89.0,68.5,29.90,ENE,67,2.3,4.6,51,0.00,OVC,,0.00,WeatherDisplay:10.37,2013-07-07 19:10:00,
2013-07-07 14:11:00,89.0,67.4,29.89,SSE,157,1.8,3.5,49,0.00,OVC,,0.00,WeatherDisplay:10.37,2013-07-07 19:11:00,
2013-07-07 14:13:00,90.0,69.4,29.89,WSW,247,1.1,3.5,51,0.00,OVC,,0.00,WeatherDisplay:10.37,2013-07-07 19:13:00,
2013-07-07 14:16:00,90.0,67.1,29.89,South,180,5.5,9.2,47,0.00,OVC,,0.00,WeatherDisplay:10.37,2013-07-07 19:16:00,
2013-07-07 14:18:00,90.0,67.1,29.89,West,270,2.9,8.1,47,0.00,OVC,,0.00,WeatherDisplay:10.37,2013-07-07 19:18:00,
2013-07-07 14:21:00,90.0,67.1,29.89,West,270,2.0,6.0,47,0.00,OVC,,0.00,WeatherDisplay:10.37,2013-07-07 19:21:00,
2013-07-07 14:23:00,89.0,67.4,29.89,WSW,247,5.0,10.0,49,0.00,OVC,,0.00,WeatherDisplay:10.37,2013-07-07 19:23:00,
2013-07-07 14:26:00,88.0,66.4,29.89,SSW,202,3.5,4.6,49,0.00,OVC,,0.00,WeatherDisplay:10.37,2013-07-07 19:26:00,
2013-07-07 14:27:00,88.0,67.0,29.89,South,180,3.3,4.0,50,0.00,OVC,,0.00,WeatherDisplay:10.37,2013-07-07 19:27:00,
2013-07-07 14:28:00,88.0,66.4,29.89,SSE,157,2.9,6.9,49,0.00,OVC,,0.00,WeatherDisplay:10.37,2013-07-07 19:28:00,
2013-07-07 14:31:00,89.0,67.4,29.89,WSW,247,6.2,10.4,49,0.00,OVC,,0.00,WeatherDisplay:10.37,2013-07-07 19:31:00,
2013-07-07 14:32:00,88.0,66.4,29.89,SSE,157,4.7,10.4,49,0.00,OVC,,0.00,WeatherDisplay:10.37,2013-07-07 19:32:00,
2013-07-07 14:34:00,89.0,67.4,29.89,West,270,3.4,8.1,49,0.00,OVC,,0.00,WeatherDisplay:10.37,2013-07-07 19:34:00,
2013-07-07 14:36:00,89.0,67.4,29.89,South,180,6.4,9.2,49,0.00,OVC,,0.00,WeatherDisplay:10.37,2013-07-07 19:36:00,
2013-07-07 14:37:00,89.0,67.9,29.89,WSW,247,3.8,11.5,50,0.00,OVC,,0.00,WeatherDisplay:10.37,2013-07-07 19:37:00,
2013-07-07 14:40:00,89.0,68.5,29.89,WNW,292,5.3,9.2,51,0.00,OVC,,0.00,WeatherDisplay:10.37,2013-07-07 19:40:00,
2013-07-07 14:41:00,89.0,67.9,29.89,SSW,202,2.6,4.6,50,0.00,OVC,,0.00,WeatherDisplay:10.37,2013-07-07 19:41:00,
2013-07-07 14:42:00,89.0,67.4,29.89,WNW,292,2.0,5.8,49,0.00,OVC,,0.00,WeatherDisplay:10.37,2013-07-07 19:42:00,
2013-07-07 14:43:00,89.0,67.4,29.89,WSW,247,6.3,6.9,49,0.00,OVC,,0.00,WeatherDisplay:10.37,2013-07-07 19:43:00,
2013-07-07 14:45:00,90.0,68.3,29.89,NE,45,2.9,9.0,49,0.00,OVC,,0.00,WeatherDisplay:10.37,2013-07-07 19:45:00,
2013-07-07 14:46:00,90.0,68.3,29.89,ESE,112,4.5,9.2,49,0.00,OVC,,0.00,WeatherDisplay:10.37,2013-07-07 19:46:00,
2013-07-07 14:47:00,89.0,67.4,29.89,ESE,112,3.6,6.9,49,0.00,OVC,,0.00,WeatherDisplay:10.37,2013-07-07 19:47:00,
2013-07-07 14:48:00,89.0,67.9,29.89,ESE,112,5.4,6.9,50,0.00,OVC,,0.00,WeatherDisplay:10.37,2013-07-07 19:48:00,
2013-07-07 14:50:00,89.0,66.2,29.89,ESE,112,3.8,7.0,47,0.00,OVC,,0.00,WeatherDisplay:10.37,2013-07-07 19:50:00,
2013-07-07 14:52:00,89.0,67.4,29.89,SE,135,2.1,4.6,49,0.00,OVC,,0.00,WeatherDisplay:10.37,2013-07-07 19:52:00,
2013-07-07 14:53:00,90.0,68.3,29.89,West,270,1.6,3.5,49,0.00,OVC,,0.00,WeatherDisplay:10.37,2013-07-07 19:53:00,
2013-07-07 14:55:00,90.0,68.3,29.89,WSW,247,1.7,5.8,49,0.00,OVC,,0.00,WeatherDisplay:10.37,2013-07-07 19:55:00,
2013-07-07 14:57:00,90.0,68.3,29.89,SSW,202,2.6,8.1,49,0.00,OVC,,0.00,WeatherDisplay:10.37,2013-07-07 19:57:00,
2013-07-07 14:58:00,90.0,68.3,29.89,SSW,202,2.5,6.0,49,0.00,OVC,,0.00,WeatherDisplay:10.37,2013-07-07 19:58:00,
2013-07-07 15:00:00,90.0,67.1,29.89,WSW,247,2.7,8.1,47,0.00,OVC,,0.00,WeatherDisplay:10.37,2013-07-07 20:00:00,
2013-07-07 15:03:00,89.0,66.2,29.90,SSE,157,4.8,9.2,47,0.00,OVC,,0.00,WeatherDisplay:10.37,2013-07-07 20:03:00,
2013-07-07 15:04:00,89.0,66.8,29.90,WNW,292,2.4,4.6,48,0.00,OVC,,0.00,WeatherDisplay:10.37,2013-07-07 20:04:00,
2013-07-07 15:05:00,89.0,67.4,29.90,SSW,202,0.7,4.6,49,0.00,OVC,,0.00,WeatherDisplay:10.37,2013-07-07 20:05:00,
2013-07-07 15:08:00,90.0,68.3,29.90,SW,225,1.4,3.5,49,0.00,OVC,,0.00,WeatherDisplay:10.37,2013-07-07 20:08:00,
2013-07-07 15:09:00,90.0,68.3,29.90,West,270,3.9,6.9,49,0.00,OVC,,0.00,WeatherDisplay:10.37,2013-07-07 20:09:00,
2013-07-07 15:10:00,90.0,68.3,29.90,SSW,202,4.6,7.0,49,0.00,OVC,,0.00,WeatherDisplay:10.37,2013-07-07 20:10:00,
2013-07-07 15:13:00,90.0,68.3,29.89,WNW,292,2.2,5.8,49,0.00,OVC,,0.00,WeatherDisplay:10.37,2013-07-07 20:13:00,
2013-07-07 15:14:00,90.0,68.3,29.89,ENE,67,1.4,5.0,49,0.00,OVC,,0.00,WeatherDisplay:10.37,2013-07-07 20:14:00,
2013-07-07 15:15:00,91.0,69.2,29.89,NNW,337,2.4,4.6,49,0.00,OVC,,0.00,WeatherDisplay:10.37,2013-07-07 20:15:00,
2013-07-07 15:18:00,91.0,69.2,29.89,WSW,247,5.8,10.4,49,0.00,OVC,,0.00,WeatherDisplay:10.37,2013-07-07 20:18:00,
2013-07-07 15:19:00,91.0,68.0,29.89,SW,225,4.2,10.4,47,0.00,OVC,,0.00,WeatherDisplay:10.37,2013-07-07 20:19:00,
2013-07-07 15:20:00,91.0,68.0,29.88,SW,225,0.4,3.5,47,0.00,OVC,,0.00,WeatherDisplay:10.37,2013-07-07 20:20:00,
2013-07-07 15:23:00,91.0,67.3,29.88,SSW,202,2.9,6.9,46,0.00,OVC,,0.00,WeatherDisplay:10.37,2013-07-07 20:23:00,
2013-07-07 15:24:00,91.0,67.3,29.88,WNW,292,2.9,5.8,46,0.00,OVC,,0.00,WeatherDisplay:10.37,2013-07-07 20:24:00,
2013-07-07 15:26:00,91.0,67.3,29.88,SW,225,0.1,1.2,46,0.00,OVC,,0.00,WeatherDisplay:10.37,2013-07-07 20:26:00,
2013-07-07 15:28:00,92.0,68.3,29.88,SSW,202,3.2,4.6,46,0.00,OVC,,0.00,WeatherDisplay:10.37,2013-07-07 20:28:00,
2013-07-07 15:29:00,92.0,68.3,29.88,West,270,2.8,5.0,46,0.00,OVC,,0.00,WeatherDisplay:10.37,2013-07-07 20:29:00,
2013-07-07 15:31:00,92.0,68.3,29.88,South,180,3.3,5.0,46,0.00,OVC,,0.00,WeatherDisplay:10.37,2013-07-07 20:31:00,
2013-07-07 15:33:00,92.0,67.6,29.88,SSE,157,6.7,10.4,45,0.00,OVC,,0.00,WeatherDisplay:10.37,2013-07-07 20:33:00,
2013-07-07 15:34:00,92.0,67.6,29.88,SSW,202,5.6,10.4,45,0.00,OVC,,0.00,WeatherDisplay:10.37,2013-07-07 20:34:00,
2013-07-07 15:36:00,91.0,66.7,29.88,WSW,247,3.2,5.8,45,0.00,OVC,,0.00,WeatherDisplay:10.37,2013-07-07 20:36:00,
2013-07-07 15:39:00,92.0,68.3,29.88,SW,225,0.8,3.5,46,0.00,OVC,,0.00,WeatherDisplay:10.37,2013-07-07 20:39:00,
2013-07-07 15:40:00,92.0,67.0,29.88,SSW,202,1.5,7.0,44,0.00,OVC,,0.00,WeatherDisplay:10.37,2013-07-07 20:40:00,
2013-07-07 15:41:00,92.0,66.3,29.87,West,270,2.9,6.9,43,0.00,OVC,,0.00,WeatherDisplay:10.37,2013-07-07 20:41:00,
2013-07-07 15:44:00,92.0,67.0,29.87,West,270,6.1,10.0,44,0.00,OVC,,0.00,WeatherDisplay:10.37,2013-07-07 20:44:00,
2013-07-07 15:45:00,92.0,67.0,29.87,West,270,5.4,10.4,44,0.00,OVC,,0.00,WeatherDisplay:10.37,2013-07-07 20:45:00,
2013-07-07 15:47:00,91.0,67.3,29.87,West,270,6.6,11.5,46,0.00,OVC,,0.00,WeatherDisplay:10.37,2013-07-07 20:47:00,
2013-07-07 15:49:00,91.0,66.1,29.87,SSW,202,5.4,10.4,44,0.00,OVC,,0.00,WeatherDisplay:10.37,2013-07-07 20:49:00,
2013-07-07 15:50:00,91.0,66.1,29.87,SSW,202,4.0,6.9,44,0.00,OVC,,0.00,WeatherDisplay:10.37,2013-07-07 20:50:00,
2013-07-07 15:52:00,91.0,65.4,29.87,WSW,247,6.8,8.1,43,0.00,OVC,,0.00,WeatherDisplay:10.37,2013-07-07 20:52:00,
2013-07-07 15:54:00,91.0,66.7,29.87,SW,225,1.9,5.8,45,0.00,OVC,,0.00,WeatherDisplay:10.37,2013-07-07 20:54:00,
2013-07-07 15:55:00,91.0,66.7,29.87,SW,225,2.0,3.5,45,0.00,OVC,,0.00,WeatherDisplay:10.37,2013-07-07 20:55:00,
2013-07-07 15:57:00,91.0,66.1,29.87,WNW,292,5.8,8.1,44,0.00,OVC,,0.00,WeatherDisplay:10.37,2013-07-07 20:57:00,
2013-07-07 15:59:00,91.0,66.1,29.87,SW,225,5.1,9.2,44,0.00,OVC,,0.00,WeatherDisplay:10.37,2013-07-07 20:59:00,
2013-07-07 16:00:00,91.0,66.1,29.87,SSE,157,4.4,6.9,44,0.00,OVC,,0.00,WeatherDisplay:10.37,2013-07-07 21:00:00,
2013-07-07 16:02:00,91.0,66.7,29.87,SSW,202,0.8,3.5,45,0.00,OVC,,0.00,WeatherDisplay:10.37,2013-07-07 21:02:00,
2013-07-07 16:04:00,92.0,68.3,29.87,NNE,22,2.5,3.5,46,0.00,OVC,,0.00,WeatherDisplay:10.37,2013-07-07 21:04:00,
2013-07-07 16:05:00,92.0,68.3,29.87,SSE,157,3.6,5.0,46,0.00,OVC,,0.00,WeatherDisplay:10.37,2013-07-07 21:05:00,
2013-07-07 16:06:00,92.0,67.0,29.87,East,90,4.6,6.9,44,0.00,OVC,,0.00,WeatherDisplay:10.37,2013-07-07 21:06:00,
2013-07-07 16:07:00,93.0,67.2,29.87,ESE,112,2.4,5.8,43,0.00,OVC,,0.00,WeatherDisplay:10.37,2013-07-07 21:07:00,
2013-07-07 16:09:00,93.0,67.9,29.87,South,180,1.6,3.5,44,0.00,OVC,,0.00,WeatherDisplay:10.37,2013-07-07 21:09:00,
2013-07-07 16:10:00,93.0,66.5,29.87,South,180,4.7,8.1,42,0.00,OVC,,0.00,WeatherDisplay:10.37,2013-07-07 21:10:00,
2013-07-07 16:11:00,93.0,66.5,29.86,WSW,247,3.5,4.6,42,0.00,OVC,,0.00,WeatherDisplay:10.37,2013-07-07 21:11:00,
2013-07-07 16:12:00,93.0,66.5,29.86,WSW,247,1.9,6.9,42,0.00,OVC,,0.00,WeatherDisplay:10.37,2013-07-07 21:12:00,
2013-07-07 16:14:00,93.0,66.5,29.86,WSW,247,1.4,2.3,42,0.00,OVC,,0.00,WeatherDisplay:10.37,2013-07-07 21:14:00,
2013-07-07 16:15:00,93.0,67.9,29.86,West,270,3.0,4.0,44,0.00,OVC,,0.00,WeatherDisplay:10.37,2013-07-07 21:15:00,
2013-07-07 16:16:00,93.0,67.9,29.86,SW,225,3.0,5.8,44,0.00,OVC,,0.00,WeatherDisplay:10.37,2013-07-07 21:16:00,
2013-07-07 16:18:00,93.0,66.5,29.86,SSW,202,3.4,5.8,42,0.00,OVC,,0.00,WeatherDisplay:10.37,2013-07-07 21:18:00,
2013-07-07 16:19:00,93.0,66.5,29.86,SSW,202,1.3,5.8,42,0.00,OVC,,0.00,WeatherDisplay:10.37,2013-07-07 21:19:00,
2013-07-07 16:21:00,93.0,67.2,29.86,SSW,202,1.1,3.5,43,0.00,OVC,,0.00,WeatherDisplay:10.37,2013-07-07 21:21:00,
2013-07-07 16:23:00,93.0,67.2,29.86,West,270,1.5,3.5,43,0.00,OVC,,0.00,WeatherDisplay:10.37,2013-07-07 21:23:00,
2013-07-07 16:25:00,93.0,66.5,29.86,SW,225,1.4,3.5,42,0.00,OVC,,0.00,WeatherDisplay:10.37,2013-07-07 21:25:00,
2013-07-07 16:26:00,93.0,66.5,29.86,SSW,202,2.0,3.5,42,0.00,OVC,,0.00,WeatherDisplay:10.37,2013-07-07 21:26:00,
2013-07-07 16:27:00,93.0,65.1,29.86,SE,135,3.7,6.9,40,0.00,OVC,,0.00,WeatherDisplay:10.37,2013-07-07 21:27:00,
2013-07-07 16:28:00,93.0,65.8,29.86,SE,135,2.6,3.5,41,0.00,OVC,,0.00,WeatherDisplay:10.37,2013-07-07 21:28:00,
2013-07-07 16:30:00,93.0,66.5,29.86,West,270,2.4,5.0,42,0.00,OVC,,0.00,WeatherDisplay:10.37,2013-07-07 21:30:00,
2013-07-07 16:31:00,93.0,66.5,29.86,ENE,67,2.7,5.8,42,0.00,OVC,,0.00,WeatherDisplay:10.37,2013-07-07 21:31:00,
2013-07-07 16:33:00,93.0,66.5,29.86,SW,225,1.6,4.6,42,0.00,OVC,,0.00,WeatherDisplay:10.37,2013-07-07 21:33:00,
2013-07-07 16:34:00,93.0,66.5,29.86,SW,225,1.1,3.5,42,0.00,OVC,,0.00,WeatherDisplay:10.37,2013-07-07 21:34:00,
2013-07-07 16:35:00,93.0,66.5,29.86,NW,315,0.7,6.0,42,0.00,OVC,,0.00,WeatherDisplay:10.37,2013-07-07 21:35:00,
2013-07-07 16:36:00,93.0,66.5,29.86,NW,315,3.5,6.9,42,0.00,OVC,,0.00,WeatherDisplay:10.37,2013-07-07 21:36:00,
2013-07-07 16:39:00,92.0,66.3,29.86,SSW,202,0.0,0.0,43,0.00,OVC,,0.00,WeatherDisplay:10.37,2013-07-07 21:39:00,
2013-07-07 16:40:00,93.0,67.9,29.86,SSW,202,0.4,3.0,44,0.00,OVC,,0.00,WeatherDisplay:10.37,2013-07-07 21:40:00,
2013-07-07 16:41:00,93.0,66.5,29.87,SSW,202,2.9,4.0,42,0.00,OVC,,0.00,WeatherDisplay:10.37,2013-07-07 21:41:00,
2013-07-07 16:44:00,93.0,66.5,29.87,SSE,157,2.7,6.0,42,0.00,OVC,,0.00,WeatherDisplay:10.37,2013-07-07 21:44:00,
2013-07-07 16:45:00,93.0,66.5,29.87,South,180,2.9,5.8,42,0.00,OVC,,0.00,WeatherDisplay:10.37,2013-07-07 21:45:00,
2013-07-07 16:46:00,93.0,67.9,29.87,South,180,2.0,5.8,44,0.00,OVC,,0.00,WeatherDisplay:10.37,2013-07-07 21:46:00,
2013-07-07 16:49:00,93.0,67.2,29.87,ESE,112,3.2,4.0,43,0.00,OVC,,0.00,WeatherDisplay:10.37,2013-07-07 21:49:00,
2013-07-07 16:50:00,93.0,67.2,29.87,ESE,112,2.5,3.5,43,0.00,OVC,,0.00,WeatherDisplay:10.37,2013-07-07 21:50:00,
2013-07-07 16:51:00,93.0,67.9,29.87,SSE,157,2.4,5.0,44,0.00,OVC,,0.00,WeatherDisplay:10.37,2013-07-07 21:51:00,
2013-07-07 16:52:00,93.0,65.8,29.87,ESE,112,4.5,6.9,41,0.00,OVC,,0.00,WeatherDisplay:10.37,2013-07-07 21:52:00,
2013-07-07 16:54:00,93.0,67.9,29.87,SW,225,2.7,4.6,44,0.00,OVC,,0.00,WeatherDisplay:10.37,2013-07-07 21:54:00,
2013-07-07 16:56:00,93.0,67.2,29.87,SSW,202,1.8,3.5,43,0.00,OVC,,0.00,WeatherDisplay:10.37,2013-07-07 21:56:00,
2013-07-07 16:58:00,93.0,67.2,29.87,SW,225,1.3,5.0,43,0.00,OVC,,0.00,WeatherDisplay:10.37,2013-07-07 21:58:00,
2013-07-07 16:59:00,93.0,67.9,29.87,SW,225,1.6,4.6,44,0.00,OVC,,0.00,WeatherDisplay:10.37,2013-07-07 21:59:00,
2013-07-07 17:01:00,93.0,66.5,29.87,West,270,5.1,9.2,42,0.00,OVC,,0.00,WeatherDisplay:10.37,2013-07-07 22:01:00,
2013-07-07 17:03:00,93.0,67.2,29.87,South,180,4.0,5.8,43,0.00,OVC,,0.00,WeatherDisplay:10.37,2013-07-07 22:03:00,
2013-07-07 17:04:00,93.0,67.9,29.87,SSE,157,2.8,6.9,44,0.00,OVC,,0.00,WeatherDisplay:10.37,2013-07-07 22:04:00,
2013-07-07 17:06:00,94.0,68.1,29.87,NE,45,0.6,1.2,43,0.00,OVC,,0.00,WeatherDisplay:10.37,2013-07-07 22:06:00,
2013-07-07 17:07:00,94.0,67.4,29.87,NE,45,0.6,1.2,42,0.00,OVC,,0.00,WeatherDisplay:10.37,2013-07-07 22:07:00,
2013-07-07 17:09:00,94.0,67.4,29.87,SW,225,0.9,3.5,42,0.00,OVC,,0.00,WeatherDisplay:10.37,2013-07-07 22:09:00,
2013-07-07 17:11:00,94.0,66.7,29.86,SSW,202,1.2,3.5,41,0.00,OVC,,0.00,WeatherDisplay:10.37,2013-07-07 22:11:00,
2013-07-07 17:12:00,93.0,66.5,29.86,SSW,202,1.5,3.5,42,0.00,OVC,,0.00,WeatherDisplay:10.37,2013-07-07 22:12:00,
2013-07-07 17:14:00,93.0,67.9,29.86,WSW,247,3.2,5.8,44,0.00,OVC,,0.00,WeatherDisplay:10.37,2013-07-07 22:14:00,
2013-07-07 17:16:00,93.0,67.9,29.86,SW,225,0.2,4.6,44,0.00,OVC,,0.00,WeatherDisplay:10.37,2013-07-07 22:16:00,
2013-07-07 17:17:00,93.0,68.5,29.86,SW,225,0.0,0.0,45,0.00,OVC,,0.00,WeatherDisplay:10.37,2013-07-07 22:17:00,
2013-07-07 17:19:00,93.0,66.5,29.86,WSW,247,2.3,4.0,42,0.00,OVC,,0.00,WeatherDisplay:10.37,2013-07-07 22:19:00,
2013-07-07 17:20:00,92.0,67.0,29.86,West,270,4.5,4.5,44,0.00,OVC,,0.00,WeatherDisplay:10.37,2013-07-07 22:20:00,
2013-07-07 17:21:00,93.0,67.2,29.87,West,270,3.6,5.0,43,0.00,OVC,,0.00,WeatherDisplay:10.37,2013-07-07 22:21:00,
2013-07-07 17:22:00,92.0,68.3,29.87,SW,225,4.2,5.8,46,0.00,OVC,,0.00,WeatherDisplay:10.37,2013-07-07 22:22:00,
2013-07-07 17:24:00,92.0,68.9,29.87,SSE,157,1.4,3.5,47,0.00,OVC,,0.00,WeatherDisplay:10.37,2013-07-07 22:24:00,
2013-07-07 17:25:00,92.0,69.5,29.87,SSE,157,1.1,3.5,48,0.00,OVC,,0.00,WeatherDisplay:10.37,2013-07-07 22:25:00,
2013-07-07 17:27:00,92.0,67.6,29.87,SSE,157,3.2,4.0,45,0.00,OVC,,0.00,WeatherDisplay:10.37,2013-07-07 22:27:00,
2013-07-07 17:28:00,92.0,67.6,29.87,SSE,157,1.4,3.5,45,0.00,OVC,,0.00,WeatherDisplay:10.37,2013-07-07 22:28:00,
2013-07-07 17:29:00,92.0,67.0,29.87,South,180,1.4,3.5,44,0.00,OVC,,0.00,WeatherDisplay:10.37,2013-07-07 22:29:00,
2013-07-07 17:30:00,92.0,67.0,29.87,South,180,1.2,3.5,44,0.00,OVC,,0.00,WeatherDisplay:10.37,2013-07-07 22:30:00,
2013-07-07 17:32:00,93.0,67.2,29.87,SSW,202,4.0,6.9,43,0.00,OVC,,0.00,WeatherDisplay:10.37,2013-07-07 22:32:00,
2013-07-07 17:33:00,93.0,67.9,29.87,SSW,202,0.8,3.5,44,0.00,OVC,,0.00,WeatherDisplay:10.37,2013-07-07 22:33:00,
2013-07-07 17:34:00,93.0,67.9,29.87,West,270,2.2,6.0,44,0.00,OVC,,0.00,WeatherDisplay:10.37,2013-07-07 22:34:00,
2013-07-07 17:35:00,93.0,67.9,29.87,West,270,4.3,5.8,44,0.00,OVC,,0.00,WeatherDisplay:10.37,2013-07-07 22:35:00,
2013-07-07 17:37:00,93.0,67.9,29.87,WSW,247,2.6,5.0,44,0.00,OVC,,0.00,WeatherDisplay:10.37,2013-07-07 22:37:00,
2013-07-07 17:38:00,93.0,67.2,29.87,SW,225,4.2,5.8,43,0.00,OVC,,0.00,WeatherDisplay:10.37,2013-07-07 22:38:00,
2013-07-07 17:39:00,93.0,67.2,29.87,WSW,247,3.3,4.6,43,0.00,OVC,,0.00,WeatherDisplay:10.37,2013-07-07 22:39:00,
2013-07-07 17:40:00,93.0,65.1,29.87,SSW,202,4.7,6.9,40,0.00,OVC,,0.00,WeatherDisplay:10.37,2013-07-07 22:40:00,
2013-07-07 17:43:00,94.0,68.1,29.86,SSE,157,3.3,5.8,43,0.00,OVC,,0.00,WeatherDisplay:10.37,2013-07-07 22:43:00,
2013-07-07 17:44:00,94.0,67.4,29.86,SSE,157,3.2,8.1,42,0.00,OVC,,0.00,WeatherDisplay:10.37,2013-07-07 22:44:00,
2013-07-07 17:45:00,93.0,67.2,29.86,South,180,3.8,6.9,43,0.00,OVC,,0.00,WeatherDisplay:10.37,2013-07-07 22:45:00,
2013-07-07 17:48:00,93.0,66.5,29.86,SSE,157,3.7,5.8,42,0.00,OVC,,0.00,WeatherDisplay:10.37,2013-07-07 22:48:00,
2013-07-07 17:49:00,93.0,66.5,29.86,South,180,1.1,4.6,42,0.00,OVC,,0.00,WeatherDisplay:10.37,2013-07-07 22:49:00,
2013-07-07 17:50:00,93.0,66.5,29.86,SSW,202,2.6,4.0,42,0.00,OVC,,0.00,WeatherDisplay:10.37,2013-07-07 22:50:00,
2013-07-07 17:53:00,93.0,67.2,29.86,WSW,247,2.5,6.9,43,0.00,OVC,,0.00,WeatherDisplay:10.37,2013-07-07 22:53:00,
2013-07-07 17:54:00,93.0,67.9,29.86,WNW,292,2.7,4.6,44,0.00,OVC,,0.00,WeatherDisplay:10.37,2013-07-07 22:54:00,
2013-07-07 17:56:00,93.0,67.2,29.86,SW,225,1.0,4.0,43,0.00,OVC,,0.00,WeatherDisplay:10.37,2013-07-07 22:56:00,
2013-07-07 17:58:00,93.0,67.2,29.86,South,180,0.7,5.8,43,0.00,OVC,,0.00,WeatherDisplay:10.37,2013-07-07 22:58:00,
2013-07-07 17:59:00,93.0,67.9,29.86,South,180,3.1,4.0,44,0.00,OVC,,0.00,WeatherDisplay:10.37,2013-07-07 22:59:00,
2013-07-07 18:00:00,93.0,67.2,29.86,SW,225,2.4,4.6,43,0.00,OVC,,0.00,WeatherDisplay:10.37,2013-07-07 23:00:00,
2013-07-07 18:01:00,93.0,67.2,29.86,SW,225,1.5,4.6,43,0.00,OVC,,0.00,WeatherDisplay:10.37,2013-07-07 23:01:00,
2013-07-07 18:03:00,93.0,67.2,29.86,SSE,157,4.4,5.8,43,0.00,OVC,,0.00,WeatherDisplay:10.37,2013-07-07 23:03:00,
2013-07-07 18:04:00,93.0,67.9,29.86,South,180,2.3,5.8,44,0.00,OVC,,0.00,WeatherDisplay:10.37,2013-07-07 23:04:00,
2013-07-07 18:06:00,93.0,67.9,29.86,ENE,67,1.7,4.6,44,0.00,OVC,,0.00,WeatherDisplay:10.37,2013-07-07 23:06:00,
2013-07-07 18:08:00,92.0,67.0,29.86,South,180,2.5,3.5,44,0.00,OVC,,0.00,WeatherDisplay:10.37,2013-07-07 23:08:00,
2013-07-07 18:09:00,92.0,67.0,29.86,South,180,1.8,3.5,44,0.00,OVC,,0.00,WeatherDisplay:10.37,2013-07-07 23:09:00,
2013-07-07 18:11:00,93.0,67.9,29.86,South,180,0.0,1.2,44,0.00,OVC,,0.00,WeatherDisplay:10.37,2013-07-07 23:11:00,
2013-07-07 18:14:00,93.0,67.9,29.86,NNE,22,2.1,3.5,44,0.00,OVC,,0.00,WeatherDisplay:10.37,2013-07-07 23:14:00,
2013-07-07 18:15:00,93.0,67.2,29.86,South,180,1.4,8.0,43,0.00,OVC,,0.00,WeatherDisplay:10.37,2013-07-07 23:15:00,
2013-07-07 18:16:00,93.0,67.9,29.86,South,180,4.2,8.1,44,0.00,OVC,,0.00,WeatherDisplay:10.37,2013-07-07 23:16:00,
2013-07-07 18:19:00,93.0,67.9,29.86,SSE,157,1.1,3.5,44,0.00,OVC,,0.00,WeatherDisplay:10.37,2013-07-07 23:19:00,
2013-07-07 18:20:00,92.0,65.6,29.86,SSW,202,5.0,6.9,42,0.00,OVC,,0.00,WeatherDisplay:10.37,2013-07-07 23:20:00,
2013-07-07 18:21:00,92.0,66.3,29.86,SSW,202,3.2,5.8,43,0.00,OVC,,0.00,WeatherDisplay:10.37,2013-07-07 23:21:00,
2013-07-07 18:24:00,92.0,67.0,29.86,South,180,3.2,4.6,44,0.00,OVC,,0.00,WeatherDisplay:10.37,2013-07-07 23:24:00,
2013-07-07 18:25:00,92.0,67.0,29.86,SSW,202,2.2,4.6,44,0.00,OVC,,0.00,WeatherDisplay:10.37,2013-07-07 23:25:00,
2013-07-07 18:26:00,92.0,67.0,29.86,SSW,202,1.4,5.8,44,0.00,OVC,,0.00,WeatherDisplay:10.37,2013-07-07 23:26:00,
2013-07-07 18:27:00,92.0,67.0,29.86,SSW,202,0.8,3.5,44,0.00,OVC,,0.00,WeatherDisplay:10.37,2013-07-07 23:27:00,
2013-07-07 18:29:00,92.0,67.0,29.86,SW,225,2.6,3.5,44,0.00,OVC,,0.00,WeatherDisplay:10.37,2013-07-07 23:29:00,
2013-07-07 18:31:00,93.0,67.9,29.85,SW,225,0.2,3.5,44,0.00,OVC,,0.00,WeatherDisplay:10.37,2013-07-07 23:31:00,
2013-07-07 18:32:00,93.0,67.9,29.85,SW,225,0.7,3.5,44,0.00,OVC,,0.00,WeatherDisplay:10.37,2013-07-07 23:32:00,
2013-07-07 18:34:00,93.0,66.5,29.85,WSW,247,2.3,3.5,42,0.00,OVC,,0.00,WeatherDisplay:10.37,2013-07-07 23:34:00,
2013-07-07 18:36:00,93.0,67.2,29.85,WSW,247,1.1,2.3,43,0.00,OVC,,0.00,WeatherDisplay:10.37,2013-07-07 23:36:00,
2013-07-07 18:37:00,93.0,67.9,29.85,WSW,247,1.6,3.5,44,0.00,OVC,,0.00,WeatherDisplay:10.37,2013-07-07 23:37:00,
2013-07-07 18:39:00,92.0,67.0,29.85,WSW,247,0.4,2.3,44,0.00,OVC,,0.00,WeatherDisplay:10.37,2013-07-07 23:39:00,
2013-07-07 18:41:00,92.0,67.0,29.86,WSW,247,0.5,3.5,44,0.00,OVC,,0.00,WeatherDisplay:10.37,2013-07-07 23:41:00,
2013-07-07 18:42:00,92.0,67.0,29.86,ENE,67,2.9,3.5,44,0.00,OVC,,0.00,WeatherDisplay:10.37,2013-07-07 23:42:00,
2013-07-07 18:43:00,92.0,68.3,29.86,SSW,202,2.9,4.6,46,0.00,OVC,,0.00,WeatherDisplay:10.37,2013-07-07 23:43:00,
2013-07-07 18:44:00,92.0,68.3,29.86,SSW,202,1.5,3.5,46,0.00,OVC,,0.00,WeatherDisplay:10.37,2013-07-07 23:44:00,
2013-07-07 18:46:00,91.0,67.3,29.86,SSW,202,1.9,3.5,46,0.00,OVC,,0.00,WeatherDisplay:10.37,2013-07-07 23:46:00,
2013-07-07 18:47:00,91.0,67.3,29.86,SSW,202,1.9,3.5,46,0.00,OVC,,0.00,WeatherDisplay:10.37,2013-07-07 23:47:00,
2013-07-07 18:48:00,91.0,67.3,29.86,SSW,202,2.3,3.5,46,0.00,OVC,,0.00,WeatherDisplay:10.37,2013-07-07 23:48:00,
2013-07-07 18:50:00,91.0,67.3,29.86,SSW,202,0.5,2.3,46,0.00,OVC,,0.00,WeatherDisplay:10.37,2013-07-07 23:50:00,
2013-07-07 18:52:00,91.0,67.3,29.86,SSW,202,0.9,3.0,46,0.00,OVC,,0.00,WeatherDisplay:10.37,2013-07-07 23:52:00,
2013-07-07 18:53:00,91.0,67.3,29.86,SSW,202,0.5,3.5,46,0.00,OVC,,0.00,WeatherDisplay:10.37,2013-07-07 23:53:00,
2013-07-07 18:55:00,91.0,67.3,29.86,SSW,202,0.1,1.2,46,0.00,OVC,,0.00,WeatherDisplay:10.37,2013-07-07 23:55:00,
2013-07-07 18:57:00,91.0,68.0,29.86,SSW,202,2.3,3.5,47,0.00,OVC,,0.00,WeatherDisplay:10.37,2013-07-07 23:57:00,
2013-07-07 18:58:00,91.0,68.0,29.86,SSW,202,0.1,2.3,47,0.00,OVC,,0.00,WeatherDisplay:10.37,2013-07-07 23:58:00,
2013-07-07 19:00:00,91.0,68.0,29.86,SSW,202,1.9,3.5,47,0.00,OVC,,0.00,WeatherDisplay:10.37,2013-07-08 00:00:00,
2013-07-07 19:02:00,92.0,68.9,29.86,SSW,202,0.0,0.0,47,0.00,OVC,,0.00,WeatherDisplay:10.37,2013-07-08 00:02:00,
2013-07-07 19:03:00,92.0,68.9,29.86,SSW,202,0.4,2.0,47,0.00,OVC,,0.00,WeatherDisplay:10.37,2013-07-08 00:03:00,
2013-07-07 19:05:00,92.0,69.5,29.86,SSW,202,0.5,2.3,48,0.00,OVC,,0.00,WeatherDisplay:10.37,2013-07-08 00:05:00,
2013-07-07 19:07:00,92.0,68.9,29.86,SSW,202,0.1,2.3,47,0.00,OVC,,0.00,WeatherDisplay:10.37,2013-07-08 00:07:00,
2013-07-07 19:08:00,92.0,68.9,29.86,SSW,202,0.0,0.0,47,0.00,OVC,,0.00,WeatherDisplay:10.37,2013-07-08 00:08:00,
2013-07-07 19:10:00,92.0,70.1,29.86,SSW,202,0.3,1.2,49,0.00,OVC,,0.00,WeatherDisplay:10.37,2013-07-08 00:10:00,
2013-07-07 19:12:00,92.0,70.1,29.86,SSW,202,0.0,1.2,49,0.00,OVC,,0.00,WeatherDisplay:10.37,2013-07-08 00:12:00,
2013-07-07 19:13:00,92.0,68.9,29.86,SSW,202,0.3,1.2,47,0.00,OVC,,0.00,WeatherDisplay:10.37,2013-07-08 00:13:00,
2013-07-07 19:16:00,92.0,69.5,29.86,SSW,202,0.3,1.2,48,0.00,OVC,,0.00,WeatherDisplay:10.37,2013-07-08 00:16:00,
2013-07-07 19:18:00,92.0,70.1,29.86,SSW,202,0.0,0.0,49,0.00,OVC,,0.00,WeatherDisplay:10.37,2013-07-08 00:18:00,
2013-07-07 19:19:00,92.0,68.9,29.86,SSW,202,0.0,0.0,47,0.00,OVC,,0.00,WeatherDisplay:10.37,2013-07-08 00:19:00,
2013-07-07 19:21:00,92.0,69.5,29.86,SSW,202,0.0,1.0,48,0.00,OVC,,0.00,WeatherDisplay:10.37,2013-07-08 00:21:00,
2013-07-07 19:23:00,92.0,70.1,29.86,SSW,202,0.0,1.2,49,0.00,OVC,,0.00,WeatherDisplay:10.37,2013-07-08 00:23:00,
2013-07-07 19:24:00,92.0,70.1,29.86,SSW,202,0.0,0.0,49,0.00,OVC,,0.00,WeatherDisplay:10.37,2013-07-08 00:24:00,
2013-07-07 19:26:00,91.0,69.2,29.86,SSW,202,0.0,0.0,49,0.00,OVC,,0.00,WeatherDisplay:10.37,2013-07-08 00:26:00,
2013-07-07 19:29:00,91.0,69.8,29.86,SSW,202,0.0,0.0,50,0.00,OVC,,0.00,WeatherDisplay:10.37,2013-07-08 00:29:00,
2013-07-07 19:31:00,91.0,70.4,29.86,SSW,202,0.0,1.2,51,0.00,OVC,,0.00,WeatherDisplay:10.37,2013-07-08 00:31:00,
2013-07-07 19:34:00,91.0,70.9,29.86,SSW,202,0.0,0.0,52,0.00,OVC,,0.00,WeatherDisplay:10.37,2013-07-08 00:34:00,
2013-07-07 19:35:00,90.0,70.0,29.86,SSW,202,0.0,0.0,52,0.00,OVC,,0.00,WeatherDisplay:10.37,2013-07-08 00:35:00,
2013-07-07 19:36:00,90.0,70.0,29.86,SSW,202,0.0,0.0,52,0.00,OVC,,0.00,WeatherDisplay:10.37,2013-07-08 00:36:00,
2013-07-07 19:39:00,90.0,69.4,29.86,SSW,202,0.0,0.0,51,0.00,OVC,,0.00,WeatherDisplay:10.37,2013-07-08 00:39:00,
2013-07-07 19:40:00,90.0,69.4,29.86,SSW,202,0.0,0.0,51,0.00,OVC,,0.00,WeatherDisplay:10.37,2013-07-08 00:40:00,
2013-07-07 19:41:00,90.0,69.4,29.87,SSW,202,0.0,0.0,51,0.00,OVC,,0.00,WeatherDisplay:10.37,2013-07-08 00:41:00,
2013-07-07 19:42:00,89.0,68.5,29.87,SSW,202,0.0,0.0,51,0.00,OVC,,0.00,WeatherDisplay:10.37,2013-07-08 00:42:00,
2013-07-07 19:44:00,89.0,69.1,29.87,SSW,202,0.0,0.0,52,0.00,OVC,,0.00,WeatherDisplay:10.37,2013-07-08 00:44:00,
2013-07-07 19:45:00,88.0,68.2,29.87,SSW,202,0.0,0.0,52,0.00,OVC,,0.00,WeatherDisplay:10.37,2013-07-08 00:45:00,
2013-07-07 19:46:00,88.0,68.2,29.87,SSW,202,0.0,0.0,52,0.00,OVC,,0.00,WeatherDisplay:10.37,2013-07-08 00:46:00,
2013-07-07 19:47:00,88.0,68.2,29.87,SSW,202,0.0,0.0,52,0.00,OVC,,0.00,WeatherDisplay:10.37,2013-07-08 00:47:00,
2013-07-07 19:49:00,88.0,68.7,29.87,SSW,202,0.0,0.0,53,0.00,OVC,,0.00,WeatherDisplay:10.37,2013-07-08 00:49:00,
2013-07-07 19:50:00,87.0,67.8,29.87,SSW,202,0.0,0.0,53,0.00,OVC,,0.00,WeatherDisplay:10.37,2013-07-08 00:50:00,
2013-07-07 19:52:00,87.0,68.3,29.88,SSW,202,0.0,1.2,54,0.00,OVC,,0.00,WeatherDisplay:10.37,2013-07-08 00:52:00,
2013-07-07 19:54:00,87.0,68.3,29.88,SSW,202,0.0,0.0,54,0.00,OVC,,0.00,WeatherDisplay:10.37,2013-07-08 00:54:00,
2013-07-07 19:55:00,87.0,68.3,29.88,SSW,202,0.0,0.0,54,0.00,OVC,,0.00,WeatherDisplay:10.37,2013-07-08 00:55:00,
2013-07-07 19:57:00,86.0,68.5,29.88,SSW,202,0.6,1.2,56,0.00,OVC,,0.00,WeatherDisplay:10.37,2013-07-08 00:57:00,
2013-07-07 19:59:00,86.0,68.5,29.88,SSW,202,0.7,1.2,56,0.00,OVC,,0.00,WeatherDisplay:10.37,2013-07-08 00:59:00,
2013-07-07 20:00:00,86.0,68.5,29.88,SSW,202,0.0,1.2,56,0.00,OVC,,0.00,WeatherDisplay:10.37,2013-07-08 01:00:00,
2013-07-07 20:02:00,85.0,67.5,29.90,SSW,202,0.0,0.0,56,0.00,OVC,,0.00,WeatherDisplay:10.37,2013-07-08 01:02:00,
2013-07-07 20:04:00,85.0,69.1,29.90,SSW,202,0.9,1.2,59,0.00,OVC,,0.00,WeatherDisplay:10.37,2013-07-08 01:04:00,
2013-07-07 20:06:00,85.0,69.1,29.90,SSW,202,0.4,1.2,59,0.00,OVC,,0.00,WeatherDisplay:10.37,2013-07-08 01:06:00,
2013-07-07 20:07:00,85.0,70.0,29.90,SSW,202,0.3,1.2,61,0.00,OVC,,0.00,WeatherDisplay:10.37,2013-07-08 01:07:00,
2013-07-07 20:10:00,84.0,69.6,29.90,SSW,202,0.0,0.0,62,0.00,OVC,,0.00,WeatherDisplay:10.37,2013-07-08 01:10:00,
2013-07-07 20:11:00,84.0,69.6,29.92,SSW,202,0.0,0.0,62,0.00,OVC,,0.00,WeatherDisplay:10.37,2013-07-08 01:11:00,
2013-07-07 20:12:00,84.0,70.0,29.92,SSW,202,0.0,1.2,63,0.00,OVC,,0.00,WeatherDisplay:10.37,2013-07-08 01:12:00,
2013-07-07 20:15:00,84.0,70.0,29.92,SSW,202,0.0,0.0,63,0.00,OVC,,0.00,WeatherDisplay:10.37,2013-07-08 01:15:00,
2013-07-07 20:16:00,84.0,70.0,29.92,SSW,202,0.0,0.0,63,0.00,OVC,,0.00,WeatherDisplay:10.37,2013-07-08 01:16:00,
2013-07-07 20:17:00,84.0,70.0,29.92,SSW,202,0.0,0.0,63,0.00,OVC,,0.00,WeatherDisplay:10.37,2013-07-08 01:17:00,
2013-07-07 20:20:00,84.0,70.0,29.93,SSW,202,0.0,0.0,63,0.00,OVC,,0.00,WeatherDisplay:10.37,2013-07-08 01:20:00,
2013-07-07 20:21:00,84.0,70.0,29.93,SSW,202,0.0,0.0,63,0.00,OVC,,0.00,WeatherDisplay:10.37,2013-07-08 01:21:00,
2013-07-07 20:22:00,83.0,69.1,29.93,SSW,202,0.0,0.0,63,0.00,OVC,,0.00,WeatherDisplay:10.37,2013-07-08 01:22:00,
2013-07-07 20:23:00,83.0,69.1,29.93,SSW,202,0.0,0.0,63,0.00,OVC,,0.00,WeatherDisplay:10.37,2013-07-08 01:23:00,
2013-07-07 20:26:00,83.0,69.6,29.93,SSW,202,0.0,0.0,64,0.00,OVC,,0.00,WeatherDisplay:10.37,2013-07-08 01:26:00,
2013-07-07 20:28:00,83.0,69.6,29.93,SSW,202,0.0,0.0,64,0.00,OVC,,0.00,WeatherDisplay:10.37,2013-07-08 01:28:00,
2013-07-07 20:29:00,83.0,69.6,29.93,SSW,202,0.0,0.0,64,0.00,OVC,,0.00,WeatherDisplay:10.37,2013-07-08 01:29:00,
2013-07-07 20:31:00,83.0,69.6,29.94,SSW,202,0.0,0.0,64,0.00,OVC,,0.00,WeatherDisplay:10.37,2013-07-08 01:31:00,
2013-07-07 20:32:00,83.0,69.6,29.94,SSW,202,0.0,0.0,64,0.00,OVC,,0.00,WeatherDisplay:10.37,2013-07-08 01:32:00,
2013-07-07 20:33:00,83.0,69.6,29.94,SSW,202,0.0,0.0,64,0.00,OVC,,0.00,WeatherDisplay:10.37,2013-07-08 01:33:00,
2013-07-07 20:35:00,83.0,70.0,29.94,SSW,202,0.0,0.0,65,0.00,OVC,,0.00,WeatherDisplay:10.37,2013-07-08 01:35:00,
2013-07-07 20:36:00,82.0,69.1,29.94,SSW,202,0.0,0.0,65,0.00,OVC,,0.00,WeatherDisplay:10.37,2013-07-08 01:36:00,
2013-07-07 20:37:00,82.0,69.1,29.94,SSW,202,0.0,0.0,65,0.00,OVC,,0.00,WeatherDisplay:10.37,2013-07-08 01:37:00,
2013-07-07 20:39:00,82.0,69.5,29.94,SSW,202,0.0,0.0,66,0.00,OVC,,0.00,WeatherDisplay:10.37,2013-07-08 01:39:00,
2013-07-07 20:40:00,82.0,69.5,29.94,SSW,202,0.0,0.0,66,0.00,OVC,,0.00,WeatherDisplay:10.37,2013-07-08 01:40:00,
2013-07-07 20:41:00,82.0,69.5,29.95,SSW,202,0.0,0.0,66,0.00,OVC,,0.00,WeatherDisplay:10.37,2013-07-08 01:41:00,
2013-07-07 20:42:00,82.0,70.0,29.95,SSW,202,0.0,0.0,67,0.00,OVC,,0.00,WeatherDisplay:10.37,2013-07-08 01:42:00,
2013-07-07 20:44:00,82.0,70.0,29.95,SSW,202,0.0,0.0,67,0.00,OVC,,0.00,WeatherDisplay:10.37,2013-07-08 01:44:00,
2013-07-07 20:46:00,82.0,70.4,29.95,SSW,202,0.0,0.0,68,0.00,OVC,,0.00,WeatherDisplay:10.37,2013-07-08 01:46:00,
2013-07-07 20:47:00,82.0,70.4,29.95,SSW,202,0.0,0.0,68,0.00,OVC,,0.00,WeatherDisplay:10.37,2013-07-08 01:47:00,
2013-07-07 20:48:00,81.0,69.4,29.95,SSW,202,0.0,0.0,68,0.00,OVC,,0.00,WeatherDisplay:10.37,2013-07-08 01:48:00,
2013-07-07 20:49:00,81.0,69.4,29.95,SSW,202,0.0,0.0,68,0.00,OVC,,0.00,WeatherDisplay:10.37,2013-07-08 01:49:00,
2013-07-07 20:52:00,81.0,69.4,29.96,SSW,202,0.0,0.0,68,0.00,OVC,,0.00,WeatherDisplay:10.37,2013-07-08 01:52:00,
2013-07-07 20:53:00,81.0,69.9,29.96,SSW,202,0.0,1.2,69,0.00,OVC,,0.00,WeatherDisplay:10.37,2013-07-08 01:53:00,
2013-07-07 20:54:00,81.0,70.7,29.96,SSW,202,0.0,0.0,71,0.00,OVC,,0.00,WeatherDisplay:10.37,2013-07-08 01:54:00,
2013-07-07 20:57:00,81.0,70.7,29.96,SSW,202,0.0,0.0,71,0.00,OVC,,0.00,WeatherDisplay:10.37,2013-07-08 01:57:00,
2013-07-07 20:59:00,81.0,70.7,29.96,SSW,202,0.0,0.0,71,0.00,OVC,,0.00,WeatherDisplay:10.37,2013-07-08 01:59:00,
2013-07-07 21:02:00,80.0,69.7,29.97,SSW,202,0.0,0.0,71,0.00,OVC,,0.00,WeatherDisplay:10.37,2013-07-08 02:02:00,
2013-07-07 21:04:00,80.0,69.7,29.97,SSW,202,0.0,0.0,71,0.00,OVC,,0.00,WeatherDisplay:10.37,2013-07-08 02:04:00,
2013-07-07 21:05:00,80.0,69.7,29.97,SSW,202,0.0,0.0,71,0.00,OVC,,0.00,WeatherDisplay:10.37,2013-07-08 02:05:00,
2013-07-07 21:07:00,80.0,69.7,29.97,SSW,202,0.0,0.0,71,0.00,OVC,,0.00,WeatherDisplay:10.37,2013-07-08 02:07:00,
2013-07-07 21:08:00,80.0,69.7,29.97,SSW,202,0.0,0.0,71,0.00,OVC,,0.00,WeatherDisplay:10.37,2013-07-08 02:08:00,
2013-07-07 21:09:00,80.0,69.7,29.97,SSW,202,0.0,0.0,71,0.00,OVC,,0.00,WeatherDisplay:10.37,2013-07-08 02:09:00,
2013-07-07 21:10:00,80.0,69.7,29.97,SSW,202,0.0,0.0,71,0.00,OVC,,0.00,WeatherDisplay:10.37,2013-07-08 02:10:00,
2013-07-07 21:12:00,80.0,69.7,29.97,SSW,202,0.0,0.0,71,0.00,OVC,,0.00,WeatherDisplay:10.37,2013-07-08 02:12:00,
2013-07-07 21:13:00,79.0,68.8,29.97,SSW,202,0.0,0.0,71,0.00,OVC,,0.00,WeatherDisplay:10.37,2013-07-08 02:13:00,
2013-07-07 21:14:00,79.0,69.2,29.97,SSW,202,0.0,0.0,72,0.00,OVC,,0.00,WeatherDisplay:10.37,2013-07-08 02:14:00,
2013-07-07 21:15:00,79.0,69.2,29.97,SSW,202,0.0,0.0,72,0.00,OVC,,0.00,WeatherDisplay:10.37,2013-07-08 02:15:00,
2013-07-07 21:17:00,79.0,70.4,29.97,SSW,202,0.0,0.0,75,0.00,OVC,,0.00,WeatherDisplay:10.37,2013-07-08 02:17:00,
2013-07-07 21:19:00,79.0,70.8,29.97,SSW,202,0.0,0.0,76,0.00,OVC,,0.00,WeatherDisplay:10.37,2013-07-08 02:19:00,
2013-07-07 21:20:00,79.0,70.4,29.98,SSW,202,0.0,0.0,75,0.00,OVC,,0.00,WeatherDisplay:10.37,2013-07-08 02:20:00,
2013-07-07 21:23:00,79.0,70.8,29.98,SSW,202,0.0,0.0,76,0.00,OVC,,0.00,WeatherDisplay:10.37,2013-07-08 02:23:00,
2013-07-07 21:24:00,78.0,69.8,29.98,SSW,202,0.0,0.0,76,0.00,OVC,,0.00,WeatherDisplay:10.37,2013-07-08 02:24:00,
2013-07-07 21:26:00,78.0,70.6,29.98,SSW,202,0.0,0.0,78,0.00,OVC,,0.00,WeatherDisplay:10.37,2013-07-08 02:26:00,
2013-07-07 21:28:00,78.0,70.6,29.98,SSW,202,0.0,0.0,78,0.00,OVC,,0.00,WeatherDisplay:10.37,2013-07-08 02:28:00,
2013-07-07 21:29:00,78.0,70.6,29.98,SSW,202,0.0,0.0,78,0.00,OVC,,0.00,WeatherDisplay:10.37,2013-07-08 02:29:00,
2013-07-07 21:30:00,78.0,70.6,29.98,SSW,202,0.0,0.0,78,0.00,OVC,,0.00,WeatherDisplay:10.37,2013-07-08 02:30:00,
2013-07-07 21:31:00,78.0,70.6,29.99,SSW,202,0.0,0.0,78,0.00,OVC,,0.00,WeatherDisplay:10.37,2013-07-08 02:31:00,
2013-07-07 21:33:00,78.0,72.4,29.99,SSW,202,0.0,0.0,83,0.00,OVC,,0.00,WeatherDisplay:10.37,2013-07-08 02:33:00,
2013-07-07 21:34:00,78.0,73.1,29.99,SSW,202,0.0,0.0,85,0.00,OVC,,0.00,WeatherDisplay:10.37,2013-07-08 02:34:00,
2013-07-07 21:36:00,78.0,73.1,29.99,SSW,202,0.0,0.0,85,0.00,OVC,,0.00,WeatherDisplay:10.37,2013-07-08 02:36:00,
2013-07-07 21:38:00,77.0,72.1,29.99,SSW,202,0.0,0.0,85,0.00,OVC,,0.00,WeatherDisplay:10.37,2013-07-08 02:38:00,
2013-07-07 21:40:00,77.0,72.1,29.99,SSW,202,0.0,0.0,85,0.00,OVC,,0.00,WeatherDisplay:10.37,2013-07-08 02:40:00,
2013-07-07 21:41:00,77.0,71.8,29.99,SSW,202,0.0,0.0,84,0.00,OVC,,0.00,WeatherDisplay:10.37,2013-07-08 02:41:00,
2013-07-07 21:43:00,77.0,71.8,29.99,SSW,202,0.0,0.0,84,0.00,OVC,,0.00,WeatherDisplay:10.37,2013-07-08 02:43:00,
2013-07-07 21:45:00,77.0,71.8,29.99,SSW,202,0.0,0.0,84,0.00,OVC,,0.00,WeatherDisplay:10.37,2013-07-08 02:45:00,
2013-07-07 21:46:00,77.0,71.8,29.99,SSW,202,0.0,0.0,84,0.00,OVC,,0.00,WeatherDisplay:10.37,2013-07-08 02:46:00,
2013-07-07 21:47:00,77.0,71.8,29.99,SSW,202,0.0,0.0,84,0.00,OVC,,0.00,WeatherDisplay:10.37,2013-07-08 02:47:00,
2013-07-07 21:48:00,77.0,72.1,29.99,SSW,202,0.0,0.0,85,0.00,OVC,,0.00,WeatherDisplay:10.37,2013-07-08 02:48:00,
2013-07-07 21:50:00,77.0,72.1,29.99,SSW,202,0.0,0.0,85,0.00,OVC,,0.00,WeatherDisplay:10.37,2013-07-08 02:50:00,
2013-07-07 21:51:00,77.0,71.8,30.00,SSW,202,0.0,0.0,84,0.00,OVC,,0.00,WeatherDisplay:10.37,2013-07-08 02:51:00,
2013-07-07 21:52:00,76.0,71.2,30.00,SSW,202,0.0,0.0,85,0.00,OVC,,0.00,WeatherDisplay:10.37,2013-07-08 02:52:00,
2013-07-07 21:53:00,76.0,71.2,30.00,SSW,202,0.0,0.0,85,0.00,OVC,,0.00,WeatherDisplay:10.37,2013-07-08 02:53:00,
2013-07-07 21:54:00,76.0,71.2,30.00,SSW,202,0.0,0.0,85,0.00,OVC,,0.00,WeatherDisplay:10.37,2013-07-08 02:54:00,
2013-07-07 21:55:00,76.0,71.2,30.00,SSW,202,0.0,0.0,85,0.00,OVC,,0.00,WeatherDisplay:10.37,2013-07-08 02:55:00,
2013-07-07 21:56:00,76.0,70.8,30.00,SSW,202,0.0,0.0,84,0.00,OVC,,0.00,WeatherDisplay:10.37,2013-07-08 02:56:00,
2013-07-07 21:57:00,76.0,71.2,30.00,SSW,202,0.0,0.0,85,0.00,OVC,,0.00,WeatherDisplay:10.37,2013-07-08 02:57:00,
2013-07-07 21:59:00,76.0,71.2,30.00,SSW,202,0.0,0.0,85,0.00,OVC,,0.00,WeatherDisplay:10.37,2013-07-08 02:59:00,
2013-07-07 22:00:00,76.0,71.2,30.01,SSW,202,1.0,1.0,85,0.00,OVC,,0.00,WeatherDisplay:10.37,2013-07-08 03:00:00,
2013-07-07 22:02:00,76.0,71.2,30.01,SSW,202,0.1,1.2,85,0.00,OVC,,0.00,WeatherDisplay:10.37,2013-07-08 03:02:00,
2013-07-07 22:04:00,76.0,71.2,30.01,SSW,202,0.0,0.0,85,0.00,OVC,,0.00,WeatherDisplay:10.37,2013-07-08 03:04:00,
2013-07-07 22:06:00,76.0,71.2,30.01,SSW,202,0.0,0.0,85,0.00,OVC,,0.00,WeatherDisplay:10.37,2013-07-08 03:06:00,
2013-07-07 22:07:00,76.0,71.2,30.01,SSW,202,0.0,0.0,85,0.00,OVC,,0.00,WeatherDisplay:10.37,2013-07-08 03:07:00,
2013-07-07 22:08:00,76.0,71.5,30.01,SSW,202,0.0,0.0,86,0.00,OVC,,0.00,WeatherDisplay:10.37,2013-07-08 03:08:00,
2013-07-07 22:09:00,76.0,71.2,30.01,SSW,202,0.0,0.0,85,0.00,OVC,,0.00,WeatherDisplay:10.37,2013-07-08 03:09:00,
2013-07-07 22:11:00,76.0,71.2,30.03,SSW,202,0.0,0.0,85,0.00,OVC,,0.00,WeatherDisplay:10.37,2013-07-08 03:11:00,
2013-07-07 22:13:00,75.0,70.2,30.03,SSW,202,0.0,0.0,85,0.00,OVC,,0.00,WeatherDisplay:10.37,2013-07-08 03:13:00,
2013-07-07 22:14:00,75.0,70.5,30.03,SSW,202,0.0,0.0,86,0.00,OVC,,0.00,WeatherDisplay:10.37,2013-07-08 03:14:00,
2013-07-07 22:15:00,75.0,70.5,30.03,SSW,202,0.0,0.0,86,0.00,OVC,,0.00,WeatherDisplay:10.37,2013-07-08 03:15:00,
2013-07-07 22:16:00,75.0,70.5,30.03,SSW,202,0.0,0.0,86,0.00,OVC,,0.00,WeatherDisplay:10.37,2013-07-08 03:16:00,
2013-07-07 22:18:00,75.0,70.5,30.03,SSW,202,0.0,0.0,86,0.00,OVC,,0.00,WeatherDisplay:10.37,2013-07-08 03:18:00,
2013-07-07 22:19:00,75.0,70.5,30.03,SSW,202,0.0,0.0,86,0.00,OVC,,0.00,WeatherDisplay:10.37,2013-07-08 03:19:00,
2013-07-07 22:20:00,75.0,70.9,30.03,SSW,202,0.0,0.0,87,0.00,OVC,,0.00,WeatherDisplay:10.37,2013-07-08 03:20:00,
2013-07-07 22:21:00,75.0,70.9,30.03,SSW,202,0.0,0.0,87,0.00,OVC,,0.00,WeatherDisplay:10.37,2013-07-08 03:21:00,
2013-07-07 22:23:00,75.0,71.2,30.03,SSW,202,0.0,0.0,88,0.00,OVC,,0.00,WeatherDisplay:10.37,2013-07-08 03:23:00,
2013-07-07 22:24:00,75.0,71.2,30.03,SSW,202,0.0,0.0,88,0.00,OVC,,0.00,WeatherDisplay:10.37,2013-07-08 03:24:00,
2013-07-07 22:25:00,75.0,70.9,30.03,SSW,202,0.0,0.0,87,0.00,OVC,,0.00,WeatherDisplay:10.37,2013-07-08 03:25:00,
2013-07-07 22:26:00,75.0,70.9,30.03,SSW,202,0.0,0.0,87,0.00,OVC,,0.00,WeatherDisplay:10.37,2013-07-08 03:26:00,
2013-07-07 22:28:00,75.0,71.5,30.03,SSW,202,0.0,0.0,89,0.00,OVC,,0.00,WeatherDisplay:10.37,2013-07-08 03:28:00,
2013-07-07 22:29:00,75.0,71.5,30.03,SSW,202,0.0,0.0,89,0.00,OVC,,0.00,WeatherDisplay:10.37,2013-07-08 03:29:00,
2013-07-07 22:30:00,75.0,71.5,30.03,SSW,202,0.0,0.0,89,0.00,OVC,,0.00,WeatherDisplay:10.37,2013-07-08 03:30:00,
2013-07-07 22:31:00,75.0,71.2,30.05,SSW,202,0.0,0.0,88,0.00,OVC,,0.00,WeatherDisplay:10.37,2013-07-08 03:31:00,
2013-07-07 22:33:00,75.0,71.9,30.05,SSW,202,0.0,0.0,90,0.00,OVC,,0.00,WeatherDisplay:10.37,2013-07-08 03:33:00,
2013-07-07 22:34:00,75.0,72.2,30.05,SSW,202,0.0,0.0,91,0.00,OVC,,0.00,WeatherDisplay:10.37,2013-07-08 03:34:00,
2013-07-07 22:35:00,75.0,72.5,30.05,SSW,202,0.0,0.0,92,0.00,OVC,,0.00,WeatherDisplay:10.37,2013-07-08 03:35:00,
2013-07-07 22:37:00,74.0,71.2,30.05,SSW,202,0.0,0.0,91,0.00,OVC,,0.00,WeatherDisplay:10.37,2013-07-08 03:37:00,
2013-07-07 22:39:00,74.0,71.2,30.05,SSW,202,0.7,1.2,91,0.00,OVC,,0.00,WeatherDisplay:10.37,2013-07-08 03:39:00,
2013-07-07 22:40:00,74.0,71.2,30.05,SSW,202,0.0,2.3,91,0.00,OVC,,0.00,WeatherDisplay:10.37,2013-07-08 03:40:00,
2013-07-07 22:42:00,74.0,71.2,30.05,SSW,202,0.0,0.0,91,0.00,OVC,,0.00,WeatherDisplay:10.37,2013-07-08 03:42:00,
2013-07-07 22:44:00,74.0,71.2,30.05,SSW,202,0.0,0.0,91,0.00,OVC,,0.00,WeatherDisplay:10.37,2013-07-08 03:44:00,
2013-07-07 22:45:00,74.0,71.2,30.05,SSW,202,0.0,0.0,91,0.00,OVC,,0.00,WeatherDisplay:10.37,2013-07-08 03:45:00,
2013-07-07 22:46:00,74.0,71.2,30.05,SSW,202,0.0,0.0,91,0.00,OVC,,0.00,WeatherDisplay:10.37,2013-07-08 03:46:00,
2013-07-07 22:48:00,74.0,71.2,30.05,SSW,202,0.0,0.0,91,0.00,OVC,,0.00,WeatherDisplay:10.37,2013-07-08 03:48:00,
2013-07-07 22:49:00,74.0,71.5,30.05,WNW,292,0.9,2.3,92,0.00,OVC,,0.00,WeatherDisplay:10.37,2013-07-08 03:49:00,
2013-07-07 22:50:00,74.0,71.8,30.05,NNW,337,1.8,5.8,93,0.00,OVC,,0.00,WeatherDisplay:10.37,2013-07-08 03:50:00,
2013-07-07 22:51:00,75.0,72.5,30.05,NNW,337,4.4,5.8,92,0.00,OVC,,0.00,WeatherDisplay:10.37,2013-07-08 03:51:00,
2013-07-07 22:53:00,75.0,72.5,30.05,North,360,4.8,6.9,92,0.00,OVC,,0.00,WeatherDisplay:10.37,2013-07-08 03:53:00,
2013-07-07 22:54:00,75.0,72.5,30.05,North,360,4.0,4.6,92,0.00,OVC,,0.00,WeatherDisplay:10.37,2013-07-08 03:54:00,
2013-07-07 22:55:00,75.0,72.5,30.05,North,360,3.7,4.6,92,0.00,OVC,,0.00,WeatherDisplay:10.37,2013-07-08 03:55:00,
2013-07-07 22:56:00,75.0,72.2,30.05,NNW,337,4.7,8.0,91,0.00,OVC,,0.00,WeatherDisplay:10.37,2013-07-08 03:56:00,
2013-07-07 22:59:00,76.0,72.5,30.05,North,360,4.4,6.9,89,0.00,OVC,,0.00,WeatherDisplay:10.37,2013-07-08 03:59:00,
2013-07-07 23:00:00,76.0,72.2,30.05,North,360,2.7,4.6,88,0.00,OVC,,0.00,WeatherDisplay:10.37,2013-07-08 04:00:00,
2013-07-07 23:01:00,76.0,71.8,30.04,North,360,2.2,3.5,87,0.00,OVC,,0.00,WeatherDisplay:10.37,2013-07-08 04:01:00,
2013-07-07 23:06:00,77.0,72.1,30.04,North,360,4.6,5.8,85,0.00,OVC,,0.00,WeatherDisplay:10.37,2013-07-08 04:06:00,
2013-07-07 23:07:00,77.0,72.1,30.04,North,360,4.3,5.8,85,0.00,OVC,,0.00,WeatherDisplay:10.37,2013-07-08 04:07:00,
2013-07-07 23:11:00,77.0,71.4,30.03,NNE,22,4.6,6.9,83,0.00,OVC,,0.00,WeatherDisplay:10.37,2013-07-08 04:11:00,
2013-07-07 23:12:00,77.0,71.4,30.03,NNE,22,4.4,5.8,83,0.00,OVC,,0.00,WeatherDisplay:10.37,2013-07-08 04:12:00,
2013-07-07 23:16:00,78.0,72.4,30.03,NNE,22,4.0,4.6,83,0.00,OVC,,0.00,WeatherDisplay:10.37,2013-07-08 04:16:00,
2013-07-07 23:17:00,78.0,72.4,30.03,NNE,22,2.8,3.5,83,0.00,OVC,,0.00,WeatherDisplay:10.37,2013-07-08 04:17:00,
2013-07-07 23:21:00,78.0,71.7,30.03,NNE,22,1.0,3.5,81,0.00,OVC,,0.00,WeatherDisplay:10.37,2013-07-08 04:21:00,
2013-07-07 23:22:00,78.0,72.1,30.03,NNE,22,0.4,2.3,82,0.00,OVC,,0.00,WeatherDisplay:10.37,2013-07-08 04:22:00,
2013-07-07 23:23:00,78.0,72.1,30.03,NNE,22,1.2,2.3,82,0.00,OVC,,0.00,WeatherDisplay:10.37,2013-07-08 04:23:00,
2013-07-07 23:26:00,77.0,71.4,30.03,ENE,67,0.0,0.0,83,0.00,OVC,,0.00,WeatherDisplay:10.37,2013-07-08 04:26:00,
2013-07-07 23:27:00,77.0,71.4,30.03,ENE,67,0.0,0.0,83,0.00,OVC,,0.00,WeatherDisplay:10.37,2013-07-08 04:27:00,
2013-07-07 23:28:00,77.0,71.4,30.03,ENE,67,0.0,0.0,83,0.00,OVC,,0.00,WeatherDisplay:10.37,2013-07-08 04:28:00,
2013-07-07 23:31:00,77.0,71.4,30.03,ENE,67,0.0,0.0,83,0.00,OVC,,0.00,WeatherDisplay:10.37,2013-07-08 04:31:00,
2013-07-07 23:32:00,77.0,71.4,30.03,ENE,67,0.0,0.0,83,0.00,OVC,,0.00,WeatherDisplay:10.37,2013-07-08 04:32:00,
2013-07-07 23:33:00,76.0,70.5,30.03,ENE,67,0.0,0.0,83,0.00,OVC,,0.00,WeatherDisplay:10.37,2013-07-08 04:33:00,
2013-07-07 23:36:00,76.0,70.5,30.03,ENE,67,0.0,0.0,83,0.00,OVC,,0.00,WeatherDisplay:10.37,2013-07-08 04:36:00,
2013-07-07 23:37:00,76.0,70.5,30.03,ENE,67,0.0,0.0,83,0.00,OVC,,0.00,WeatherDisplay:10.37,2013-07-08 04:37:00,
2013-07-07 23:38:00,76.0,70.5,30.03,ENE,67,0.0,0.0,83,0.00,OVC,,0.00,WeatherDisplay:10.37,2013-07-08 04:38:00,
2013-07-07 23:41:00,76.0,70.8,30.05,ENE,67,1.9,2.3,84,0.00,OVC,,0.00,WeatherDisplay:10.37,2013-07-08 04:41:00,
2013-07-07 23:42:00,76.0,70.8,30.05,ENE,67,1.9,3.5,84,0.00,OVC,,0.00,WeatherDisplay:10.37,2013-07-08 04:42:00,
2013-07-07 23:43:00,76.0,70.8,30.05,ENE,67,1.9,2.3,84,0.00,OVC,,0.00,WeatherDisplay:10.37,2013-07-08 04:43:00,
2013-07-07 23:47:00,76.0,70.8,30.05,ENE,67,2.2,3.5,84,0.00,OVC,,0.00,WeatherDisplay:10.37,2013-07-08 04:47:00,
2013-07-07 23:48:00,76.0,71.2,30.05,ENE,67,2.3,3.5,85,0.00,OVC,,0.00,WeatherDisplay:10.37,2013-07-08 04:48:00,
2013-07-07 23:52:00,76.0,71.5,30.04,ENE,67,0.0,2.3,86,0.00,OVC,,0.00,WeatherDisplay:10.37,2013-07-08 04:52:00,
2013-07-07 23:53:00,76.0,71.5,30.04,ENE,67,0.0,1.2,86,0.00,OVC,,0.00,WeatherDisplay:10.37,2013-07-08 04:53:00,
2013-07-07 23:57:00,76.0,72.2,30.04,ENE,67,1.6,2.3,88,0.00,OVC,,0.00,WeatherDisplay:10.37,2013-07-08 04:57:00,
2013-07-07 23:58:00,76.0,72.5,30.04,ENE,67,1.1,3.5,89,0.00,OVC,,0.00,WeatherDisplay:10.37,2013-07-08 04:58:00,